                ,  0.301,  0.397,  0.494,  0.590,  0.687,  0.784,  0.880,  0.977,  1.073,  1.170,  1.267,  1.363,  1.460,  1.556,  1.653,  1.749,  1.846,  1.943,  2.039,  2.136,  2.232,  2.329,  2.426,  2.522,  2.619,  2.715,  2.812,  2.909,  3.005,  3.102,  3.198,  3.295,  3.392,  3.488,  3.585,  3.681,  3.778,  3.875,  3.971,  4.068,  4.164,  4.261,  4.357,  4.454,  4.551,  4.647,  4.744,  4.840,  4.937,  5.034,  5.130,  5.227,  5.323,  5.420,  5.517,  5.613,  5.710,  5.806,  5.903,  6.000,  6.096,  6.193,  6.289,  6.386,  6.483,  6.579,  6.676,  6.772,  6.869,  6.965,  7.062,  7.159,  7.255,  7.352,  7.448,  7.545,  7.642,  7.738,  7.835,  7.931
2011/11/16 00:00,  999.0,  999.0,  999.0,    3.5,    2.2,    5.1,    4.5,    5.3,    4.1,    4.4,    6.0,    5.8,    5.8,    5.9,    7.0,    8.1,    9.6,   10.1,   10.8,   12.9,   14.4,   16.7,   18.2,   18.9,   22.0,   23.3,   23.2,   24.6,  999.0,  999.0,  999.0,  999.0,  999.0,  999.0,  999.0,  999.0,  999.0,  999.0,  999.0,  999.0,   -0.0,   -0.3,    0.1,   -0.2,   -0.1,   -0.1,   -0.3,   -0.1,    0.0,    0.2,   -0.2,   -0.3,   -0.0,  999.0,   -0.5,   -0.2,   -0.5,   -0.2,   -0.0,    0.3,   -1.0,  999.0,   -0.6,  999.0,  999.0,    0.2,  999.0,    0.2,  999.0,   -0.7,    0.1,   -0.4,    0.1,    0.2,    0.3,  999.0,  999.0,  999.0,  999.0,  999.0
2011/11/16 00:10,  999.0,  999.0,  999.0,    4.5,    6.2,    5.6,    3.2,    3.9,    4.4,    4.9,    4.9,    6.4,    6.1,    6.7,    8.0,    8.5,    9.4,    9.9,   10.9,   12.9,   14.3,   15.2,   17.0,   18.1,   19.9,   19.3,   20.4,   20.3,  999.0,   22.5,  999.0,  999.0,  999.0,  999.0,  999.0,  999.0,  999.0,  999.0,  999.0,  999.0,  999.0,  999.0,  999.0,  999.0,  999.0,  999.0,  999.0,  999.0,  999.0,  999.0,  999.0,  999.0,  999.0,  999.0,  999.0,  999.0,  999.0,  999.0,  999.0,  999.0,  999.0,  999.0,  999.0,  999.0,   -0.1,  999.0,  999.0,  999.0,  999.0,  999.0,   -0.0,    0.0,    0.4,    0.1,  999.0,  999.0,  999.0,  999.0,  999.0,  999.0
2011/11/16 00:20,  999.0,  999.0,   11.0,    4.5,    4.6,  999.0,    2.1,    3.2,    2.8,    3.9,    5.1,    5.9,    5.1,    5.9,    7.5,    9.0,    9.7,   10.9,   13.5,   15.5,   14.6,   16.8,   16.8,   20.4,   23.6,   23.5,   23.8,   23.9,   24.2,   26.6,  999.0,  999.0,  999.0,  999.0,  999.0,  999.0,  999.0,  999.0,  999.0,  999.0,  999.0,  999.0,  999.0,  999.0,  999.0,  999.0,  999.0,  999.0,  999.0,  999.0,  999.0,  999.0,  999.0,  999.0,  999.0,  999.0,   -0.2,  999.0,    0.4,  999.0,  999.0,  999.0,  999.0,  999.0,  999.0,  999.0,   -0.0,  999.0,  999.0,  999.0,    0.0,  999.0,  999.0,  999.0,  999.0,  999.0,  999.0,  999.0,  999.0,  999.0
2011/11/16 00:30,  999.0,  999.0,  999.0,    7.3,    6.9,    4.4,    3.9,    3.3,    3.2,    3.5,    4.0,    5.0,    6.4,    7.7,    8.7,    9.9,   11.7,   13.2,   15.0,   15.5,   16.8,   18.5,   18.3,   18.2,   19.4,  999.0,  999.0,  999.0,  999.0,  999.0,  999.0,  999.0,   -0.0,   -0.0,    0.0,    0.2,    0.1,   -0.2,   -0.2,    0.1,   -0.0,  999.0,   -0.1,    0.1,   -0.4,    0.1,    0.2,   -0.1,   -0.0,  999.0,    0.5,  999.0,    0.1,   -0.2,   -0.2,    0.2,    0.1,  999.0,    0.2,   -0.0,  999.0,   -0.5,   -0.0,   -0.3,  999.0,  999.0,   -0.2,  999.0,    0.4,    0.1,    0.2,  999.0,   -0.1,  999.0,  999.0,  999.0,  999.0,  999.0,  999.0,  999.0
2011/11/16 00:40,  999.0,  999.0,  999.0,    4.8,    3.1,    3.1,    4.3,    4.2,    3.9,    3.7,    4.2,    5.2,    6.5,    7.7,    7.6,    7.9,    9.1,   12.8,   12.3,   13.5,   13.1,   13.2,   14.1,   16.3,   19.9,   20.6,   23.6,  999.0,  999.0,  999.0,  999.0,  999.0,    0.1,  999.0,    0.1,    0.1,    0.1,    0.1,  999.0,    0.1,   -0.4,  999.0,   -0.1,    0.1,   -0.5,    0.1,    0.4,    0.1,   -0.1,    0.0,  999.0,  999.0,   -0.1,   -0.0,    0.0,    0.2,  999.0,  999.0,  999.0,    0.1,  999.0,  999.0,  999.0,  999.0,   -0.1,    0.3,    0.3,    0.2,    0.1,    0.0,  999.0,   -0.0,  999.0,  999.0,  999.0,  999.0,  999.0,  999.0,  999.0,  999.0
2011/11/16 00:50,  999.0,  999.0,  999.0,    4.1,    3.1,    2.7,    1.9,    0.2,    1.6,    3.0,    3.0,    4.7,    7.7,    8.6,    8.0,    8.9,   12.6,   14.2,   14.8,   15.2,   15.4,   16.2,   16.6,   18.2,   19.2,   21.2,   23.2,   25.7,   28.7,  999.0,  999.0,  999.0,  999.0,  999.0,  999.0,    0.2,  999.0,   -0.2,  999.0,  999.0,  999.0,  999.0,  999.0,    0.3,   -0.3,  999.0,    0.6,  999.0,    0.2,  999.0,  999.0,   -0.2,  999.0,   -0.1,   -0.2,  999.0,    0.1,  999.0,    0.3,    0.1,  999.0,   -0.3,   -0.2,  999.0,   -0.2,  999.0,  999.0,  999.0,   -0.1,  999.0,   -0.2,  999.0,  999.0,  999.0,  999.0,  999.0,  999.0,  999.0,  999.0,  999.0
2011/11/16 01:00,  999.0,  999.0,  999.0,    8.4,    8.0,    6.8,    5.6,    3.8,    2.2,    3.3,    3.0,    3.9,    5.6,    6.6,    8.8,    9.2,   11.0,   11.7,   11.9,   13.4,   13.8,   14.4,   15.9,   16.5,   17.8,   21.2,  999.0,  999.0,  999.0,  999.0,   -0.2,   -0.2,    0.0,    0.3,    0.0,    0.2,   -0.1,   -0.2,   -0.1,   -0.1,  999.0,   -0.2,   -0.2,   -0.4,   -0.1,   -0.5,    0.1,   -0.1,   -0.2,    0.0,    0.0,    0.2,    0.2,    0.5,    0.2,   -0.4,  999.0,   -0.2,   -0.0,   -0.0,  999.0,  999.0,  999.0,  999.0,  999.0,  999.0,  999.0,  999.0,  999.0,  999.0,  999.0,    0.3,   -0.1,    0.1,  999.0,  999.0,  999.0,  999.0,  999.0,  999.0
2011/11/16 01:10,  999.0,  999.0,    6.7,    6.3,    9.2,   10.0,    6.7,    4.8,    5.0,    2.9,    4.2,    4.8,    4.8,    5.6,    6.4,    7.7,    9.6,   10.1,   10.9,   12.3,   13.0,   13.5,   15.4,   16.6,   19.1,   19.8,   22.5,  999.0,  999.0,  999.0,    0.0,    0.0,    0.0,   -0.2,    0.0,   -0.0,    0.0,  999.0,  999.0,  999.0,  999.0,   -0.2,   -0.2,   -0.1,   -0.2,   -0.3,  999.0,    0.2,    0.1,    0.1,    0.1,    0.1,  999.0,    0.4,   -0.2,  999.0,  999.0,  999.0,   -0.3,  999.0,  999.0,  999.0,  999.0,  999.0,  999.0,  999.0,  999.0,  999.0,  999.0,  999.0,    0.1,   -0.1,    0.0,   -0.2,  999.0,    0.2,  999.0,  999.0,  999.0,  999.0
2011/11/16 01:20,  999.0,  999.0,  999.0,    8.3,   10.5,   10.0,    7.3,    6.8,    7.3,    7.9,    9.2,    9.4,    9.7,    8.7,    6.3,    5.5,    5.9,    7.7,    6.8,    6.7,    7.2,    8.9,   11.4,   12.5,   10.7,   12.9,   17.4,   18.2,  999.0,  999.0,  999.0,  999.0,  999.0,  999.0,   -0.1,   -0.3,   -0.2,   -0.3,  999.0,  999.0,  999.0,  999.0,  999.0,  999.0,  999.0,  999.0,  999.0,  999.0,  999.0,  999.0,  999.0,    0.5,  999.0,    0.0,  999.0,  999.0,  999.0,  999.0,  999.0,  999.0,  999.0,  999.0,  999.0,  999.0,  999.0,  999.0,  999.0,  999.0,    0.0,  999.0,   -0.5,  999.0,  999.0,   -0.4,  999.0,  999.0,  999.0,  999.0,  999.0,  999.0
2011/11/16 01:30,  999.0,   15.0,   11.4,   12.5,   16.0,   12.5,   11.7,   11.0,   11.0,   11.2,   10.4,    9.1,    9.8,   10.3,    9.7,    9.1,    7.4,    5.9,    8.0,   10.2,    9.4,   11.3,   11.7,   12.5,   13.2,   13.1,  999.0,  999.0,  999.0,  999.0,  999.0,  999.0,  999.0,  999.0,  999.0,    0.3,  999.0,  999.0,  999.0,  999.0,   -0.2,  999.0,  999.0,  999.0,  999.0,  999.0,  999.0,   -0.1,    0.3,  999.0,    0.1,  999.0,  999.0,  999.0,  999.0,    0.3,    0.2,  999.0,  999.0,   -0.2,    0.0,  999.0,  999.0,  999.0,  999.0,  999.0,  999.0,  999.0,  999.0,  999.0,  999.0,  999.0,   -0.2,  999.0,    0.2,  999.0,  999.0,  999.0,  999.0,  999.0
2011/11/16 01:40,  999.0,  999.0,  999.0,  999.0,    7.5,  999.0,  999.0,  999.0,  999.0,   10.6,    9.3,   12.7,   11.8,   10.5,   12.7,   12.6,   14.7,   13.5,   12.9,   16.2,   16.3,   18.7,  999.0,  999.0,  999.0,  999.0,  999.0,  999.0,    0.5,    0.1,  999.0,   -0.1,   -0.1,   -0.1,    0.0,    0.1,   -0.1,    0.2,    0.3,   -0.1,   -0.4,   -0.1,  999.0,    0.1,  999.0,   -0.0,   -0.3,    0.3,   -0.2,  999.0,    0.1,  999.0,   -0.2,   -0.0,  999.0,    0.2,  999.0,  999.0,    0.0,   -0.5,   -0.2,  999.0,   -0.1,  999.0,  999.0,  999.0,  999.0,  999.0,  999.0,  999.0,   -0.1,    0.1,   -0.3,  999.0,    0.2,  999.0,  999.0,  999.0,  999.0,  999.0
2011/11/16 01:50,  999.0,  999.0,    7.2,    7.5,    8.8,    9.3,   10.4,    8.0,    7.8,    9.6,    9.1,    8.3,    8.8,   10.2,    9.6,   13.2,   16.1,   17.3,   18.6,   19.1,   19.5,   20.4,   21.2,   21.8,   22.9,  999.0,  999.0,  999.0,  999.0,  999.0,  999.0,    0.0,   -0.2,  999.0,  999.0,  999.0,    0.5,  999.0,  999.0,  999.0,  999.0,  999.0,  999.0,    0.1,   -0.0,    0.0,   -0.0,  999.0,  999.0,  999.0,  999.0,   -0.2,    0.0,  999.0,  999.0,  999.0,   -0.1,  999.0,  999.0,  999.0,  999.0,  999.0,  999.0,    0.1,  999.0,  999.0,  999.0,  999.0,  999.0,  999.0,   -0.3,    0.3,  999.0,  999.0,   -0.1,  999.0,  999.0,  999.0,  999.0,  999.0
2011/11/16 02:00,  999.0,  999.0,    6.9,    7.8,    8.8,    9.4,    9.9,  999.0,   10.0,    9.1,    8.8,    8.9,   10.4,   12.2,   13.1,   14.2,   14.3,   15.3,   17.2,   18.9,   19.8,   21.0,   22.1,   23.9,   23.6,  999.0,  999.0,  999.0,  999.0,  999.0,  999.0,  999.0,  999.0,  999.0,   -0.0,  999.0,  999.0,  999.0,    0.4,  999.0,  999.0,  999.0,  999.0,    0.2,   -0.1,  999.0,    0.2,  999.0,   -0.1,   -0.0,   -0.4,   -0.7,   -0.2,   -0.1,    0.1,  999.0,  999.0,  999.0,   -0.0,  999.0,   -0.0,  999.0,  999.0,  999.0,  999.0,  999.0,  999.0,  999.0,  999.0,  999.0,  999.0,  999.0,   -0.1,   -0.0,  999.0,  999.0,  999.0,  999.0,  999.0,  999.0
2011/11/16 02:10,  999.0,  999.0,    3.9,    5.3,    6.5,    7.0,    7.3,    8.1,    6.4,    8.7,    8.6,   10.0,   12.6,   13.0,   13.6,   15.5,   16.9,   19.5,   20.0,   20.6,   22.0,   21.7,   21.1,  999.0,  999.0,  999.0,  999.0,   18.5,  999.0,  999.0,  999.0,  999.0,  999.0,  999.0,  999.0,  999.0,  999.0,  999.0,  999.0,  999.0,  999.0,  999.0,  999.0,    0.2,   -0.3,  999.0,    0.2,    0.2,   -0.2,   -0.0,   -0.3,  999.0,   -0.4,  999.0,    0.5,  999.0,   -0.3,   -0.3,    0.0,    0.2,  999.0,  999.0,    0.1,  999.0,  999.0,  999.0,  999.0,  999.0,  999.0,  999.0,  999.0,  999.0,  999.0,  999.0,  999.0,  999.0,  999.0,  999.0,  999.0,  999.0
2011/11/16 02:20,  999.0,  999.0,    3.1,    3.5,    2.2,    2.9,    4.4,    5.3,    5.8,    7.5,   11.1,   10.5,   11.8,   13.8,   15.9,   17.9,   18.2,   19.7,   21.0,   22.1,   22.0,   21.7,   21.2,   20.8,  999.0,  999.0,  999.0,  999.0,   22.0,  999.0,  999.0,  999.0,  999.0,  999.0,  999.0,  999.0,  999.0,  999.0,  999.0,  999.0,  999.0,  999.0,  999.0,  999.0,  999.0,  999.0,  999.0,  999.0,    0.1,  999.0,  999.0,    0.0,   -0.5,   -0.1,   -0.1,    0.1,  999.0,  999.0,   -0.5,  999.0,  999.0,   -0.3,  999.0,  999.0,  999.0,  999.0,  999.0,  999.0,  999.0,  999.0,  999.0,  999.0,  999.0,  999.0,  999.0,  999.0,  999.0,  999.0,  999.0,  999.0
2011/11/16 02:30,  999.0,  999.0,  999.0,  999.0,    4.7,    4.9,    4.7,    6.8,    4.0,  999.0,    8.2,   13.5,   12.9,   11.8,   14.2,   15.7,   15.5,   16.3,   17.6,   19.6,   20.2,   20.2,   22.1,  999.0,  999.0,  999.0,  999.0,    4.4,  999.0,  999.0,  999.0,    0.3,    0.1,    0.2,  999.0,   -0.2,  999.0,  999.0,  999.0,  999.0,  999.0,  999.0,  999.0,  999.0,    0.1,  999.0,   -0.0,  999.0,  999.0,  999.0,  999.0,   -0.2,  999.0,  999.0,  999.0,  999.0,  999.0,  999.0,  999.0,  999.0,  999.0,    0.1,    0.1,  999.0,  999.0,  999.0,  999.0,  999.0,  999.0,  999.0,  999.0,  999.0,  999.0,   -0.4,  999.0,  999.0,  999.0,  999.0,  999.0,  999.0
2011/11/16 02:40,  999.0,  999.0,  999.0,  999.0,    5.2,    5.3,    5.3,    6.5,    5.8,    6.8,    7.8,    9.2,    8.9,   10.5,   10.5,   10.9,   12.8,   15.1,   17.3,   19.2,   17.3,   13.4,  999.0,  999.0,  999.0,  999.0,  999.0,  999.0,  999.0,  999.0,    0.3,    0.1,    0.3,    0.1,  999.0,    0.1,   -0.1,   -0.0,  999.0,   -0.2,   -0.2,  999.0,  999.0,   -0.3,    0.1,  999.0,    0.2,  999.0,    0.0,    0.1,  999.0,   -0.5,  999.0,   -0.2,  999.0,  999.0,  999.0,  999.0,  999.0,  999.0,  999.0,  999.0,    0.1,   -0.0,  999.0,  999.0,  999.0,  999.0,  999.0,  999.0,  999.0,  999.0,  999.0,  999.0,  999.0,  999.0,  999.0,  999.0,  999.0,  999.0
2011/11/16 02:50,  999.0,    0.2,    0.6,    3.3,    2.5,    2.6,    4.2,    4.5,    4.9,    6.5,    7.8,    8.2,    9.5,   11.0,   10.4,   11.6,   13.2,   12.0,  999.0,  999.0,  999.0,  999.0,  999.0,  999.0,  999.0,  999.0,  999.0,  999.0,  999.0,  999.0,   -0.3,  999.0,  999.0,  999.0,  999.0,  999.0,  999.0,  999.0,  999.0,  999.0,  999.0,  999.0,  999.0,  999.0,  999.0,  999.0,  999.0,   -0.1,  999.0,    0.2,    0.1,   -0.3,   -0.3,  999.0,  999.0,    0.2,  999.0,   -0.2,    0.1,   -0.1,    0.1,    0.3,   -0.4,   -0.4,   -0.4,    0.1,    0.1,  999.0,   -0.1,  999.0,  999.0,  999.0,  999.0,  999.0,  999.0,  999.0,  999.0,  999.0,  999.0,  999.0
2011/11/16 03:00,  999.0,  999.0,  999.0,    2.7,    5.5,    6.8,    7.6,    7.6,    7.9,    9.3,    7.7,    8.7,    9.0,    9.1,   10.3,   10.5,   15.0,  999.0,  999.0,  999.0,  999.0,  999.0,  999.0,    0.3,    0.3,    0.1,  999.0,    0.6,  999.0,  999.0,  999.0,   -0.3,  999.0,    0.1,   -0.3,   -0.1,    0.2,  999.0,  999.0,  999.0,  999.0,  999.0,  999.0,  999.0,    0.1,  999.0,  999.0,   -0.2,   -0.3,  999.0,    0.1,    0.0,    0.3,  999.0,    0.4,    0.0,   -0.0,   -0.0,   -0.4,   -0.5,    0.2,    0.3,   -0.2,    0.1,  999.0,    0.1,   -0.1,  999.0,  999.0,  999.0,  999.0,  999.0,  999.0,   -0.3,  999.0,  999.0,  999.0,  999.0,  999.0,  999.0
2011/11/16 03:10,  999.0,  999.0,    5.2,    7.6,    7.9,    7.5,    7.5,    8.8,    8.0,    9.2,   10.9,   12.9,   12.3,   15.2,   14.6,   16.6,   17.0,   18.3,   20.8,   23.6,   22.0,   16.9,  999.0,    6.3,    0.1,  999.0,  999.0,   -1.0,  999.0,   -0.4,  999.0,  999.0,  999.0,  999.0,  999.0,  999.0,   -0.4,  999.0,  999.0,  999.0,  999.0,  999.0,   -0.1,    0.1,  999.0,  999.0,  999.0,   -0.1,  999.0,    0.1,  999.0,  999.0,  999.0,  999.0,  999.0,  999.0,  999.0,   -0.2,  999.0,    0.1,   -0.1,  999.0,  999.0,  999.0,  999.0,  999.0,  999.0,  999.0,  999.0,  999.0,  999.0,  999.0,  999.0,  999.0,  999.0,  999.0,  999.0,  999.0,  999.0,  999.0
2011/11/16 03:20,  999.0,  999.0,  999.0,  999.0,  999.0,    3.6,    3.5,  999.0,  999.0,  999.0,  999.0,  999.0,   12.6,  999.0,   13.5,  999.0,  999.0,  999.0,   23.4,   24.9,   24.0,  999.0,  999.0,  999.0,  999.0,  999.0,  999.0,  999.0,  999.0,  999.0,    0.1,    0.1,  999.0,  999.0,  999.0,   -0.1,   -0.2,   -0.4,  999.0,  999.0,  999.0,  999.0,   -0.1,  999.0,  999.0,  999.0,  999.0,    0.0,  999.0,  999.0,    0.1,  999.0,   -0.1,   -0.3,   -0.2,   -0.1,   -0.2,    0.1,   -0.0,   -0.3,  999.0,  999.0,  999.0,    0.0,    0.2,  999.0,  999.0,  999.0,  999.0,  999.0,  999.0,  999.0,  999.0,  999.0,  999.0,  999.0,  999.0,  999.0,  999.0,  999.0
2011/11/16 03:30,  999.0,  999.0,   -0.2,    0.7,    1.1,    0.1,   -0.0,  999.0,  999.0,  999.0,  999.0,  999.0,    9.5,   11.2,   13.7,   12.6,   13.2,   15.0,   17.0,  999.0,  999.0,  999.0,  999.0,   16.1,   16.4,   17.4,   17.7,   17.6,   18.9,  999.0,  999.0,    0.2,    0.1,    0.1,    0.0,    0.1,   -0.0,  999.0,   -0.2,  999.0,  999.0,  999.0,    0.1,    0.1,   -0.1,   -0.2,   -0.0,   -0.1,    0.1,   -0.1,   -0.4,   -0.5,   -0.0,    0.2,  999.0,    0.1,    0.0,  999.0,   -0.3,   -0.6,   -0.4,   -0.2,    0.1,    0.2,   -0.1,    0.2,   -0.2,  999.0,    0.0,   -0.1,   -0.1,    0.0,    0.4,    0.3,   -0.3,  999.0,  999.0,  999.0,  999.0,  999.0
2011/11/16 03:40,  999.0,    0.0,    0.0,   -0.2,  999.0,    0.0,    0.3,    0.1,  999.0,  999.0,  999.0,  999.0,  999.0,  999.0,  999.0,   11.5,  999.0,  999.0,  999.0,  999.0,  999.0,  999.0,  999.0,  999.0,   16.7,   13.0,    8.7,    8.7,  999.0,  999.0,  999.0,    0.0,    0.0,   -0.2,    0.1,    0.0,    0.0,   -0.2,   -0.0,    0.2,   -0.2,    0.1,  999.0,    0.1,    0.1,    0.2,    0.2,   -0.2,    0.1,   -0.0,    0.0,    0.1,    0.0,    0.1,    0.4,    0.3,    0.1,  999.0,    0.2,   -0.6,   -0.0,  999.0,   -0.4,    0.0,   -0.1,    0.3,    0.2,  999.0,   -0.3,   -0.0,   -0.1,    0.4,  999.0,    0.2,   -0.1,  999.0,  999.0,  999.0,  999.0,  999.0
2011/11/16 03:50,  999.0,   -0.1,   -0.1,    0.1,    0.0,   -0.2,    0.1,  999.0,  999.0,  999.0,  999.0,  999.0,  999.0,  999.0,  999.0,  999.0,  999.0,    8.3,    9.1,    8.4,  999.0,    9.2,  999.0,  999.0,  999.0,   -0.3,    0.3,   -0.1,   -0.1,   -0.0,    0.0,   -0.1,    0.0,   -0.0,    0.1,    0.0,    0.0,    0.1,   -0.0,    0.1,   -0.1,   -0.3,    0.1,   -0.1,   -0.1,   -0.0,   -0.1,    0.1,    0.1,    0.2,    0.1,    0.1,    0.0,   -0.2,   -0.1,    0.1,    0.1,   -0.3,  999.0,  999.0,   -0.2,    0.1,    0.0,   -0.3,    0.6,  999.0,    0.1,   -0.0,  999.0,  999.0,    0.1,  999.0,   -0.2,    0.5,   -0.3,  999.0,  999.0,  999.0,  999.0,   -0.1
2011/11/16 04:00,  999.0,  999.0,  999.0,  999.0,  999.0,  999.0,  999.0,  999.0,  999.0,  999.0,  999.0,  999.0,   14.0,   14.8,   14.2,   18.4,   18.3,  999.0,  999.0,   16.8,   18.2,   18.7,  999.0,  999.0,  999.0,  999.0,  999.0,   -0.3,   -0.3,   -0.1,    0.0,   -0.0,   -0.2,    0.1,   -0.3,   -0.2,   -0.1,   -0.0,    0.3,    0.1,   -0.1,   -0.1,  999.0,    0.0,    0.0,   -0.2,    0.1,   -0.2,   -0.1,   -0.2,   -0.1,   -0.2,    0.5,   -0.3,   -0.0,    0.4,    0.4,   -0.6,    0.0,    0.1,    0.1,   -0.2,    0.3,  999.0,   -0.2,  999.0,   -0.1,    0.1,    0.0,    0.0,   -0.2,   -0.1,    0.1,    0.2,   -0.2,    0.2,  999.0,  999.0,  999.0,  999.0
2011/11/16 04:10,  999.0,  999.0,  999.0,  999.0,    6.6,    7.2,    7.7,  999.0,  999.0,    8.3,   16.0,   15.8,   18.1,   19.0,   18.5,   18.8,  999.0,   19.5,   19.5,   20.6,  999.0,  999.0,   17.5,   17.1,  999.0,  999.0,  999.0,  999.0,  999.0,    0.1,   -0.2,    0.0,    0.1,  999.0,   -0.1,   -0.1,    0.2,    0.1,   -0.0,   -0.1,   -0.4,    0.2,    0.0,    0.1,    0.1,   -0.1,   -0.0,    0.1,   -0.1,    0.1,   -0.1,    0.4,    0.0,    0.3,    0.2,   -0.2,   -0.4,    0.0,   -0.0,   -0.1,  999.0,    0.3,    0.2,  999.0,   -0.4,   -0.1,    0.3,  999.0,    0.2,  999.0,   -0.0,  999.0,  999.0,   -0.1,   -0.2,  999.0,  999.0,  999.0,  999.0,  999.0
2011/11/16 04:20,  999.0,  999.0,    5.2,  999.0,   10.2,    9.1,    8.7,    9.4,    9.7,   10.7,   10.4,  999.0,   11.9,   12.6,   14.4,   15.7,   16.3,   17.0,   18.0,   17.8,   16.6,   17.4,   16.2,   16.2,   16.5,   17.0,  999.0,  999.0,  999.0,  999.0,   -0.0,   -0.1,   -0.5,   -0.2,   -0.2,   -0.0,   -0.1,   -0.1,    0.6,    0.2,   -0.2,  999.0,   -0.2,  999.0,    0.3,   -0.2,   -0.1,    0.1,   -0.2,  999.0,   -0.1,   -0.1,   -0.2,   -0.1,   -0.0,   -0.4,   -0.6,  999.0,    0.2,   -0.0,    0.7,    0.2,   -0.2,    0.7,   -0.0,  999.0,  999.0,   -0.1,    0.0,  999.0,    0.1,    0.3,  999.0,  999.0,  999.0,  999.0,  999.0,  999.0,  999.0,  999.0
2011/11/16 04:30,  999.0,  999.0,    8.1,    9.7,   12.3,    8.7,    8.1,    9.3,   13.5,   16.3,   15.4,   14.4,   16.4,   17.8,   16.3,   16.4,   17.2,   19.3,   18.7,   19.4,   18.5,   18.5,  999.0,  999.0,  999.0,  999.0,    3.7,   -0.5,   -0.1,   -0.2,    0.1,   -0.0,   -0.2,    0.0,    0.3,   -0.0,    0.0,  999.0,  999.0,    0.1,   -0.4,  999.0,    0.1,    0.1,   -0.2,    0.0,    0.2,  999.0,    0.3,   -0.3,    0.2,    0.1,   -0.0,   -0.2,   -0.3,   -0.0,   -0.1,   -0.3,   -0.3,   -0.1,   -0.1,   -0.1,   -0.4,    0.1,    0.1,  999.0,   -0.4,  999.0,  999.0,  999.0,  999.0,  999.0,    0.2,    0.0,  999.0,  999.0,  999.0,  999.0,  999.0,  999.0
2011/11/16 04:40,  999.0,   10.7,   12.8,   12.2,   13.6,   14.4,   14.1,   15.2,   13.9,   15.5,   16.7,   16.7,   17.4,   17.9,   18.4,   19.0,   18.8,   19.2,   20.4,   21.2,  999.0,  999.0,  999.0,  999.0,  999.0,    2.8,  999.0,    9.5,   -0.6,   -0.1,    0.1,    0.1,    0.2,   -0.2,   -0.4,    0.1,   -0.1,   -0.0,   -0.6,  999.0,   -0.2,   -0.2,   -0.0,    0.1,    0.3,    0.2,    0.1,    0.2,    0.1,  999.0,    0.1,    0.0,    0.2,   -0.1,  999.0,    0.2,   -0.3,   -0.6,    0.1,   -0.1,   -0.0,  999.0,   -0.2,  999.0,  999.0,  999.0,  999.0,    0.4,  999.0,  999.0,  999.0,  999.0,  999.0,    0.3,  999.0,  999.0,  999.0,  999.0,  999.0,  999.0
2011/11/16 04:50,  999.0,  999.0,  999.0,  999.0,  999.0,  999.0,  999.0,  999.0,   12.1,   19.1,   17.8,   17.8,   19.9,   19.9,   20.3,   20.0,   21.4,   22.6,  999.0,  999.0,  999.0,  999.0,  999.0,  999.0,  999.0,  999.0,  999.0,   -0.6,   -1.5,   -0.4,    0.1,    0.2,    0.0,  999.0,  999.0,   -0.0,   -0.0,   -0.3,    0.1,    0.5,   -0.0,  999.0,  999.0,    0.0,   -0.1,    0.3,  999.0,   -0.3,   -0.0,    0.2,  999.0,    0.1,  999.0,    0.1,   -0.2,   -0.2,   -0.2,   -0.2,   -0.2,    0.0,    0.8,   -0.0,    0.2,    0.1,    0.4,    0.5,    0.4,   -0.3,  999.0,  999.0,    0.2,   -0.0,   -0.0,  999.0,  999.0,  999.0,  999.0,  999.0,  999.0,  999.0
2011/11/16 05:00,  999.0,  999.0,  999.0,  999.0,  999.0,  999.0,  999.0,    7.1,    7.2,    8.3,    6.3,    8.7,    9.3,   11.0,   13.9,   13.3,   13.6,   17.0,   13.3,    8.1,  999.0,  999.0,  999.0,  999.0,  999.0,  999.0,   -0.5,   -0.4,  999.0,    0.1,    0.1,   -0.0,   -0.1,  999.0,   -0.2,  999.0,   -0.1,  999.0,  999.0,  999.0,  999.0,  999.0,  999.0,  999.0,  999.0,  999.0,  999.0,  999.0,  999.0,  999.0,  999.0,  999.0,  999.0,  999.0,  999.0,    0.2,  999.0,    0.3,  999.0,    0.0,  999.0,   -0.3,  999.0,   -0.0,  999.0,  999.0,   -0.2,   -0.1,  999.0,  999.0,   -0.0,  999.0,  999.0,  999.0,  999.0,  999.0,  999.0,  999.0,  999.0,  999.0
2011/11/16 05:10,  999.0,   -0.0,    0.2,    0.6,    0.4,    0.5,    0.6,    0.0,    1.7,    0.1,    2.4,    2.4,    2.7,    2.4,   -0.1,   -0.1,   -0.2,   -0.2,   -0.1,   -0.1,   -0.1,   -0.1,   -0.4,  999.0,  999.0,    0.0,   -0.4,   -0.8,   -0.8,   -0.0,    0.0,    0.1,    0.0,   -0.1,    0.1,    0.1,    0.0,   -0.0,   -0.1,    0.2,   -0.2,   -0.1,   -0.3,   -0.0,   -0.1,    0.2,   -0.1,    0.0,    0.0,   -0.0,    0.0,   -0.1,   -0.1,    0.1,   -0.0,   -0.0,    0.2,    0.2,   -0.1,    0.0,    0.3,    0.2,    0.1,    0.1,   -0.1,    0.6,    0.3,   -0.3,   -0.1,  999.0,  999.0,    0.1,    0.3,    0.3,  999.0,  999.0,  999.0,  999.0,  999.0,  999.0
2011/11/16 05:20,  999.0,  999.0,    2.7,  999.0,  999.0,    6.5,    9.2,    6.5,    9.9,   11.3,   14.6,   13.9,   14.8,   13.4,   13.4,   15.3,   13.6,    8.9,  999.0,  999.0,  999.0,  999.0,   -1.0,  999.0,  999.0,    0.4,   -0.4,   -0.3,   -0.1,    0.3,    0.3,    0.1,    0.2,    0.1,    0.1,    0.1,    0.0,    0.1,  999.0,   -0.0,   -0.1,    0.0,   -0.5,    0.0,  999.0,   -0.0,   -0.1,    0.1,    0.0,   -0.1,   -0.1,    0.2,   -0.3,   -0.1,   -0.2,    0.4,   -0.1,    0.4,   -0.0,    0.2,    0.1,   -0.1,   -0.2,    0.1,   -0.1,   -0.2,   -0.2,   -0.2,   -0.1,   -0.1,   -0.0,  999.0,    0.0,   -0.4,  999.0,  999.0,  999.0,  999.0,  999.0,  999.0
2011/11/16 05:30,  999.0,  999.0,    1.8,    2.6,    5.2,  999.0,  999.0,   11.6,  999.0,  999.0,  999.0,  999.0,  999.0,  999.0,  999.0,  999.0,  999.0,  999.0,  999.0,  999.0,  999.0,   -0.4,   -0.4,   -0.3,   -0.5,   -0.5,   -0.8,   -1.8,    0.1,    0.0,    0.1,   -0.0,   -0.0,   -0.2,    0.0,    0.2,    0.2,    0.2,   -0.0,   -0.0,   -0.2,   -0.1,   -0.0,   -0.0,   -0.1,   -0.1,    0.1,   -0.0,    0.0,   -0.1,    0.1,   -0.1,   -0.0,    0.3,   -0.1,   -0.2,    0.1,   -0.0,    0.0,   -0.1,    0.0,    0.1,    0.1,    0.2,    0.3,    0.1,    0.1,    0.0,   -0.0,    0.1,  999.0,  999.0,  999.0,  999.0,   -0.1,  999.0,  999.0,  999.0,  999.0,  999.0
2011/11/16 05:40,  999.0,  999.0,  999.0,  999.0,  999.0,  999.0,  999.0,   11.4,   14.9,   13.6,   11.4,  999.0,  999.0,  999.0,  999.0,  999.0,  999.0,  999.0,   -0.1,   -0.5,   -0.1,   -0.2,   -0.5,   -0.6,   -1.0,   -0.6,   -0.6,   -0.3,    0.1,    0.0,    0.1,   -0.0,    0.0,   -0.1,    0.0,    0.2,    0.0,    0.1,    0.3,    0.1,   -0.1,   -0.2,    0.1,    0.2,    0.1,   -0.1,   -0.1,    0.1,    0.0,    0.2,   -0.1,    0.1,    0.0,    0.2,    0.1,    0.3,    0.3,   -0.0,    0.0,   -0.0,    0.2,   -0.0,   -0.1,   -0.2,   -0.3,   -0.1,   -0.1,    0.2,   -0.3,    0.0,    0.1,   -0.2,  999.0,    0.2,  999.0,  999.0,  999.0,  999.0,  999.0,  999.0
2011/11/16 05:50,  999.0,    0.0,  999.0,  999.0,  999.0,  999.0,   -0.1,   -0.0,  999.0,  999.0,  999.0,   18.1,   14.2,   14.5,    5.9,    9.1,    9.2,    4.4,    0.3,   -0.0,  999.0,   -0.5,   -0.6,   -0.8,  999.0,   -1.4,   -1.3,   -0.6,   -0.0,    0.0,    0.2,    0.0,    0.1,    0.1,    0.0,   -0.2,   -0.0,   -0.0,   -0.0,    0.0,   -0.2,   -0.2,    0.1,    0.0,    0.0,    0.1,    0.1,   -0.0,   -0.0,   -0.2,   -0.2,   -0.0,    0.2,    0.1,   -0.2,    0.0,    0.3,   -0.1,   -0.3,    0.0,   -0.0,    0.1,    0.0,   -0.2,   -0.1,   -0.2,    0.2,  999.0,   -0.2,   -0.2,    0.0,   -0.1,    0.2,    0.1,    0.4,  999.0,  999.0,  999.0,  999.0,  999.0
2011/11/16 06:00,  999.0,    0.1,   -0.0,    0.0,  999.0,  999.0,    0.1,    0.0,    9.7,   11.1,   10.2,   12.3,    2.8,   -0.1,    4.6,    9.5,    9.4,   -0.1,   -0.1,   -0.2,   -0.3,   -0.2,   -0.3,  999.0,  999.0,  999.0,   -0.4,    0.1,    0.0,   -0.1,    0.0,    0.2,   -0.0,   -0.0,    0.0,    0.0,    0.1,   -0.0,    0.2,   -0.1,    0.1,    0.1,    0.1,   -0.0,   -0.1,   -0.0,   -0.1,   -0.3,   -0.3,   -0.1,   -0.1,   -0.2,   -0.1,   -0.1,   -0.1,    0.0,    0.2,    0.1,    0.0,    0.0,    0.0,    0.0,   -0.1,    0.2,   -0.2,    0.0,    0.1,   -0.0,  999.0,    0.1,    0.2,    0.2,    0.2,    0.3,  999.0,  999.0,  999.0,  999.0,  999.0,  999.0
2011/11/16 06:10,  999.0,   -0.1,   -0.2,   -0.0,    0.0,  999.0,    0.1,    0.0,  999.0,   -0.1,    6.2,    3.6,    1.8,   -0.1,   -0.1,   -0.1,    0.1,   -0.1,   -0.1,    0.0,  999.0,   -0.0,   -0.0,  999.0,  999.0,    0.0,   -0.0,    0.0,    0.1,    0.1,   -0.0,   -0.0,   -0.0,    0.1,   -0.2,   -0.1,   -0.0,    0.0,   -0.2,    0.1,    0.0,   -0.0,   -0.2,    0.0,    0.0,    0.1,   -0.0,    0.1,   -0.1,    0.1,   -0.1,    0.0,    0.2,    0.0,   -0.1,   -0.0,   -0.2,   -0.0,   -0.1,    0.1,   -0.0,   -0.1,   -0.1,   -0.2,    0.1,    0.2,    0.1,   -0.0,    0.2,    0.0,  999.0,   -0.3,    0.1,  999.0,  999.0,  999.0,  999.0,  999.0,  999.0,  999.0
2011/11/16 06:20,  999.0,    0.1,   -0.1,   -0.1,   -0.8,   -0.1,   -0.0,   -0.1,   -0.3,   -0.2,   11.5,    4.9,   -0.5,  999.0,  999.0,  999.0,  999.0,   -0.0,   -0.2,    0.0,   -0.0,   -0.1,   -0.2,  999.0,  999.0,   -0.2,   -0.0,    0.0,    0.0,    0.0,    0.0,   -0.0,    0.0,    0.0,   -0.1,    0.1,    0.0,    0.0,   -0.0,    0.0,   -0.3,   -0.1,   -0.2,   -0.2,   -0.1,   -0.2,    0.0,    0.1,   -0.2,    0.1,   -0.0,    0.0,   -0.1,   -0.0,    0.0,    0.0,    0.1,    0.0,    0.2,   -0.2,    0.0,   -0.3,    0.1,   -0.0,    0.1,    0.1,   -0.0,   -0.0,    0.3,   -0.1,   -0.1,   -0.1,    0.2,    0.0,   -0.2,  999.0,  999.0,  999.0,  999.0,  999.0
2011/11/16 06:30,  999.0,   -0.1,   -0.1,    0.1,    0.3,    0.1,   -0.3,    0.0,   -0.2,   -0.4,    1.5,    9.4,    2.3,   -0.3,   -0.3,   -0.3,   -0.2,    1.8,    2.3,   -0.3,    4.3,    2.1,   -0.6,   -0.5,   -0.1,    1.9,    0.1,   -0.1,    0.0,   -0.0,   -0.1,   -0.0,   -0.1,   -0.1,    0.1,    0.1,    0.1,   -0.0,   -0.3,    0.0,   -0.1,   -0.1,   -0.0,    0.1,   -0.0,    0.1,    0.1,   -0.1,    0.0,   -0.0,   -0.3,    0.1,   -0.1,    0.1,    0.1,    0.0,   -0.1,   -0.1,    0.0,    0.1,    0.1,    0.1,    0.3,    0.1,    0.2,    0.0,    0.0,   -0.1,   -0.2,   -0.1,   -0.2,   -0.0,    0.0,   -0.1,  999.0,  999.0,  999.0,  999.0,  999.0,  999.0
2011/11/16 06:40,  999.0,  999.0,  999.0,  999.0,  999.0,  999.0,  999.0,  999.0,  999.0,   13.9,   15.8,   18.3,   16.3,   16.0,   12.2,   15.3,    6.3,    2.8,   -0.3,    4.3,    2.9,    2.7,   -0.4,   -0.1,    0.1,   -0.0,    0.0,   -0.1,   -0.1,   -0.0,    0.1,   -0.1,    0.0,   -0.0,    0.1,    0.2,    0.2,   -0.1,  999.0,   -0.2,   -0.2,   -0.1,   -0.2,    0.1,   -0.0,    0.1,  999.0,   -0.1,    0.1,   -0.0,    0.1,   -0.1,    0.2,   -0.1,    0.1,   -0.1,    0.1,    0.2,   -0.1,   -0.1,   -0.4,   -0.0,    0.2,   -0.3,  999.0,    0.2,   -0.2,   -0.1,  999.0,  999.0,    0.0,  999.0,  999.0,    0.0,  999.0,  999.0,  999.0,  999.0,  999.0,  999.0
2011/11/16 06:50,  999.0,    0.1,   -0.4,  999.0,   -0.1,  999.0,  999.0,   -1.3,   -0.3,   -0.3,   -0.7,   -0.9,    3.8,    1.2,    1.9,   -0.3,   -0.3,   -0.2,   -0.2,    0.0,   -0.2,   -0.2,   -0.3,   -0.1,  999.0,    0.0,   -0.0,    0.0,   -0.0,   -0.0,    0.0,    0.1,   -0.0,    0.0,    0.0,    0.1,    0.1,   -0.0,    0.2,    0.2,   -0.1,   -0.2,   -0.2,   -0.1,   -0.0,    0.1,    0.2,    0.0,   -0.1,   -0.1,   -0.1,   -0.2,   -0.1,   -0.1,   -0.2,    0.0,    0.1,   -0.1,    0.2,   -0.1,    0.0,    0.2,   -0.0,   -0.1,  999.0,   -0.1,   -0.1,    0.1,    0.2,    0.1,   -0.1,  999.0,   -0.1,   -0.1,    0.2,  999.0,  999.0,  999.0,  999.0,  999.0
2011/11/16 07:00,  999.0,   -0.0,   -1.1,  999.0,  999.0,  999.0,  999.0,  999.0,   -0.8,   -0.2,  999.0,  999.0,   -0.2,    0.1,    0.1,    0.2,   -0.1,    0.1,    0.1,  999.0,    0.1,    0.2,    0.1,    0.1,  999.0,    0.1,    0.1,    0.1,    0.2,    0.2,    0.1,    0.1,   -0.0,    0.1,   -0.1,    0.1,   -0.0,   -0.1,    0.0,    0.1,   -0.4,   -0.4,    0.1,    0.2,   -0.1,   -0.3,   -0.2,   -0.0,    0.1,   -0.1,    0.0,    0.0,    0.1,    0.1,    0.1,    0.1,   -0.0,    0.0,    0.1,    0.1,    0.1,    0.2,   -0.2,  999.0,   -0.2,   -0.0,    0.1,   -0.1,   -0.0,  999.0,   -0.1,  999.0,    0.2,    0.4,  999.0,  999.0,   -0.4,  999.0,  999.0,  999.0
2011/11/16 07:10,  999.0,    0.0,   -0.0,    0.1,   -0.0,  999.0,    0.2,    0.2,    0.1,   -0.2,  999.0,   -0.2,   -0.3,    0.3,   -0.1,   -0.0,    0.0,    0.1,  999.0,    0.0,  999.0,   -0.0,   -0.0,  999.0,  999.0,   -0.1,   -0.0,    0.0,   -0.0,   -0.1,    0.0,   -0.0,   -0.1,   -0.1,    0.0,   -0.0,   -0.1,    0.1,    0.1,    0.1,   -0.1,   -0.3,    0.0,   -0.1,   -0.1,    0.1,   -0.0,    0.1,    0.2,   -0.0,    0.1,    0.0,    0.0,    0.1,    0.2,   -0.2,   -0.1,    0.2,    0.1,   -0.2,   -0.0,    0.0,   -0.1,   -0.1,   -0.1,  999.0,   -0.1,   -0.1,   -0.1,    0.2,  999.0,   -0.2,  999.0,  999.0,  999.0,  999.0,  999.0,  999.0,  999.0,  999.0
2011/11/16 07:20,  999.0,   -0.0,    0.0,   -0.2,    0.2,   -0.0,    0.0,   -0.1,   -0.3,   -0.0,   -0.0,    0.0,   -0.2,   -0.1,  999.0,  999.0,  999.0,  999.0,    0.1,  999.0,   -0.0,    0.0,   -0.0,   -0.1,   -0.0,   -0.0,   -0.1,   -0.1,   -0.0,    0.0,   -0.1,   -0.1,   -0.1,    0.0,   -0.0,    0.0,    0.0,    0.1,   -0.1,    0.1,    0.0,   -0.2,    0.0,    0.1,   -0.0,    0.1,    0.1,    0.1,    0.0,   -0.2,   -0.1,   -0.1,   -0.1,   -0.0,   -0.2,   -0.0,    0.1,   -0.2,    0.1,   -0.0,   -0.1,    0.4,    0.1,   -0.0,  999.0,   -0.1,   -0.2,   -0.1,   -0.3,    0.0,   -0.1,   -0.2,  999.0,  999.0,  999.0,    0.3,  999.0,  999.0,  999.0,  999.0
2011/11/16 07:30,  999.0,  999.0,   -0.0,   -0.0,  999.0,   -0.0,   -0.1,  999.0,    0.1,  999.0,    0.1,   -0.0,  999.0,    0.2,    0.1,  999.0,  999.0,  999.0,    0.1,    0.1,   -0.0,   -0.0,    0.1,    0.1,    0.1,    0.0,    0.0,   -0.0,    0.0,   -0.1,   -0.1,   -0.1,   -0.1,   -0.0,    0.1,   -0.0,    0.0,    0.1,   -0.2,    0.2,   -0.2,   -0.1,   -0.0,    0.0,    0.2,    0.0,    0.0,    0.0,   -0.0,    0.0,    0.0,   -0.0,    0.2,   -0.1,    0.0,    0.2,   -0.2,    0.0,    0.2,   -0.2,    0.1,   -0.0,   -0.1,   -0.1,    0.2,   -0.1,    0.0,   -0.1,    0.2,  999.0,    0.3,    0.2,    0.5,   -0.0,  999.0,   -0.4,  999.0,  999.0,    0.4,  999.0
2011/11/16 07:40,  999.0,  999.0,    0.0,    0.1,   -0.1,    0.0,    0.0,   -0.0,   -0.1,    0.0,  999.0,  999.0,    0.0,  999.0,   -0.0,    0.1,  999.0,  999.0,  999.0,   -0.1,    0.0,    0.1,   -0.0,    0.0,    0.1,   -0.1,    0.0,    0.2,    0.1,   -0.2,   -0.0,    0.0,    0.0,    0.0,    0.1,   -0.1,   -0.0,   -0.0,   -0.1,   -0.1,   -0.2,    0.1,    0.0,    0.0,    0.0,   -0.1,   -0.0,    0.0,    0.0,    0.1,   -0.1,    0.1,   -0.0,    0.0,    0.1,    0.0,   -0.1,    0.1,   -0.0,   -0.0,   -0.1,    0.0,   -0.2,    0.2,    0.1,   -0.1,    0.0,    0.0,   -0.1,    0.2,    0.1,    0.1,  999.0,  999.0,   -0.0,  999.0,  999.0,  999.0,  999.0,  999.0
2011/11/16 07:50,  999.0,  999.0,   -0.1,    0.0,   -0.0,    0.1,    0.1,  999.0,   -0.1,   -0.0,    0.0,  999.0,  999.0,    0.1,  999.0,  999.0,  999.0,  999.0,  999.0,  999.0,  999.0,   -0.1,   -0.1,    0.1,   -0.0,    0.0,    0.1,   -0.0,    0.0,   -0.0,    0.2,    0.1,   -0.0,   -0.0,   -0.0,   -0.0,    0.1,    0.2,    0.2,   -0.0,   -0.1,   -0.2,    0.1,    0.0,   -0.1,    0.0,    0.0,    0.0,    0.0,   -0.0,    0.1,    0.1,   -0.0,    0.0,   -0.1,   -0.1,   -0.0,   -0.2,    0.2,    0.1,    0.0,   -0.2,    0.1,    0.1,  999.0,    0.2,    0.1,    0.2,   -0.1,  999.0,    0.1,   -0.3,  999.0,  999.0,  999.0,   -0.1,  999.0,  999.0,  999.0,  999.0
2011/11/16 08:00,  999.0,    0.2,    0.0,   -0.1,  999.0,    0.2,    0.1,  999.0,  999.0,   -0.5,   -0.1,   -0.3,   -0.1,   -0.0,  999.0,  999.0,  999.0,  999.0,  999.0,   -0.1,   -0.1,    0.2,    0.1,    0.1,   -0.0,   -0.0,   -0.0,   -0.1,   -0.0,   -0.0,    0.0,   -0.0,    0.0,    0.2,    0.2,    0.2,    0.0,   -0.2,    0.1,    0.1,   -0.3,   -0.3,   -0.0,   -0.1,   -0.0,    0.1,    0.1,   -0.0,   -0.1,   -0.0,   -0.1,   -0.2,   -0.1,   -0.1,   -0.2,    0.2,   -0.0,   -0.2,    0.0,   -0.1,   -0.1,   -0.0,   -0.0,   -0.3,    0.1,   -0.0,    0.1,    0.1,   -0.0,  999.0,    0.1,   -0.2,  999.0,  999.0,  999.0,   -0.3,  999.0,  999.0,  999.0,  999.0
2011/11/16 08:10,  999.0,  999.0,   -0.1,   -0.0,   -0.1,   -0.0,   -0.1,   -0.1,  999.0,    0.1,    0.0,    0.1,  999.0,  999.0,   -0.1,  999.0,  999.0,   -0.1,  999.0,    0.1,    0.2,    0.2,    0.1,    0.1,    0.0,   -0.0,   -0.1,   -0.0,   -0.1,   -0.1,    0.1,   -0.0,    0.1,   -0.0,   -0.0,   -0.2,    0.0,    0.0,    0.0,    0.2,   -0.2,   -0.1,   -0.0,    0.0,    0.2,   -0.0,   -0.1,    0.2,    0.1,   -0.2,   -0.0,   -0.0,   -0.1,   -0.1,   -0.3,    0.0,   -0.2,   -0.0,    0.1,   -0.2,   -0.1,    0.0,    0.0,  999.0,  999.0,  999.0,    0.0,   -0.0,   -0.3,  999.0,    0.4,  999.0,    0.0,    0.1,    0.2,    0.1,  999.0,  999.0,  999.0,  999.0
2011/11/16 08:20,  999.0,  999.0,   -0.0,   -0.1,    0.1,    0.1,  999.0,  999.0,   -0.0,  999.0,  999.0,  999.0,  999.0,  999.0,  999.0,    0.1,    0.0,   -0.0,   -0.1,  999.0,   -0.0,    0.0,   -0.0,    0.1,   -0.1,   -0.0,   -0.0,   -0.0,    0.0,    0.2,   -0.0,   -0.0,    0.0,   -0.1,   -0.0,    0.1,    0.1,   -0.2,   -0.1,    0.1,   -0.4,   -0.2,   -0.3,   -0.0,    0.1,    0.0,    0.1,    0.0,    0.1,    0.1,    0.2,   -0.1,   -0.1,    0.0,   -0.0,   -0.1,   -0.1,   -0.1,    0.0,    0.0,    0.0,    0.3,    0.1,   -0.1,   -0.1,    0.1,    0.1,   -0.0,   -0.3,   -0.2,   -0.1,   -0.0,   -0.1,  999.0,    0.0,    0.2,  999.0,  999.0,  999.0,  999.0
2011/11/16 08:30,  999.0,  999.0,   -0.0,   -0.0,   -0.0,   -0.0,    0.1,    0.0,    0.1,   -0.0,   -0.1,   -0.0,  999.0,    0.1,   -0.0,  999.0,    0.1,    0.0,    0.1,   -0.1,   -0.1,    0.0,    0.0,    0.1,    0.1,    0.0,    0.0,    0.0,    0.0,   -0.1,    0.0,    0.1,    0.1,    0.0,   -0.1,    0.0,    0.0,   -0.1,    0.1,   -0.1,   -0.3,   -0.0,    0.0,   -0.1,   -0.0,   -0.1,   -0.1,   -0.1,   -0.0,    0.0,   -0.0,    0.0,   -0.2,   -0.1,   -0.0,    0.1,    0.1,   -0.1,   -0.0,    0.1,   -0.0,   -0.0,    0.1,    0.1,    0.3,    0.1,   -0.1,    0.0,   -0.0,   -0.1,   -0.1,    0.0,   -0.0,  999.0,  999.0,  999.0,  999.0,  999.0,  999.0,  999.0
2011/11/16 08:40,  999.0,  999.0,   -0.2,   -0.2,   -0.1,   -0.1,   -0.0,  999.0,    0.0,   -0.1,   -0.0,    0.1,   -0.0,    0.0,    0.1,    0.1,   -0.0,    0.0,    0.1,   -0.0,    0.1,    0.1,   -0.2,    0.1,    0.0,    0.1,   -0.0,   -0.0,   -0.1,    0.0,   -0.1,    0.1,   -0.1,    0.0,   -0.2,   -0.0,    0.1,   -0.0,   -0.0,    0.1,   -0.0,   -0.1,    0.1,   -0.0,    0.1,    0.1,   -0.0,   -0.0,   -0.0,    0.1,    0.0,   -0.0,   -0.1,   -0.0,   -0.1,    0.0,   -0.0,   -0.0,    0.2,   -0.1,   -0.3,   -0.1,   -0.0,    0.1,    0.0,   -0.1,    0.1,  999.0,   -0.0,   -0.1,   -0.3,    0.2,    0.0,    0.0,  999.0,   -0.0,  999.0,  999.0,  999.0,  999.0
2011/11/16 08:50,  999.0,  999.0,   -0.0,   -0.2,    0.2,    0.0,   -0.1,    0.1,    0.2,  999.0,  999.0,    0.2,    0.6,    1.6,    1.0,    0.9,    0.2,    0.1,   -0.1,   -0.1,    0.1,    0.0,   -0.2,   -0.1,    0.1,    0.1,   -0.0,   -0.1,   -0.1,    0.1,    0.0,    0.1,    0.2,    0.0,   -0.2,    0.2,   -0.2,   -0.1,   -0.1,   -0.0,    0.0,   -0.1,    0.0,   -0.1,   -0.0,   -0.0,   -0.0,    0.1,    0.1,    0.1,    0.1,    0.0,    0.0,    0.1,    0.0,    0.0,   -0.1,    0.1,    0.1,    0.2,    0.1,   -0.0,    0.0,    0.1,    0.1,    0.2,    0.0,   -0.1,    0.7,    0.0,    0.1,   -0.3,    0.2,  999.0,  999.0,  999.0,  999.0,  999.0,  999.0,  999.0
2011/11/16 09:00,  999.0,   -0.1,   -0.1,    0.1,    0.2,    0.0,    0.1,    0.2,   -0.1,  999.0,  999.0,    0.1,    0.9,    0.1,    0.7,  999.0,  999.0,    0.2,   -0.1,    0.1,    0.0,    0.1,    0.1,   -0.1,   -0.1,   -0.2,   -0.3,   -0.1,   -0.1,    0.1,    0.3,    0.0,   -0.1,   -0.1,    0.2,   -0.1,   -0.1,   -0.2,   -0.1,   -0.1,   -0.4,   -0.3,   -0.1,    0.1,    0.1,    0.1,   -0.0,    0.0,   -0.0,   -0.0,    0.1,    0.0,   -0.0,   -0.0,    0.1,   -0.0,   -0.0,    0.1,    0.1,    0.1,   -0.0,   -0.0,   -0.1,  999.0,  999.0,    0.1,   -0.1,    0.1,   -0.2,  999.0,    0.1,    0.2,   -0.1,  999.0,   -0.3,  999.0,  999.0,  999.0,  999.0,  999.0
2011/11/16 09:10,  999.0,   -0.0,   -0.0,    0.6,    0.3,   -0.1,   -0.3,   -0.2,  999.0,  999.0,  999.0,  999.0,  999.0,    1.3,    0.0,    1.5,   -0.2,    0.0,   -0.1,   -0.0,   -0.0,    0.0,    0.1,    0.0,   -0.1,   -0.0,    0.0,    0.1,    0.1,   -0.0,    0.0,   -0.2,   -0.0,   -0.0,   -0.1,   -0.0,   -0.1,   -0.1,    0.0,    0.1,   -0.3,   -0.3,   -0.1,    0.1,   -0.2,    0.1,   -0.1,    0.0,    0.1,   -0.1,   -0.1,   -0.0,   -0.1,    0.0,    0.0,    0.1,   -0.1,    0.1,    0.0,    0.3,   -0.0,    0.0,    0.0,   -0.1,   -0.1,   -0.0,    0.1,   -0.2,    0.2,    0.1,    0.1,   -0.2,  999.0,  999.0,  999.0,  999.0,  999.0,  999.0,  999.0,  999.0
2011/11/16 09:20,  999.0,    0.0,    0.2,    0.3,    0.2,    0.2,    0.3,    0.6,    0.5,    1.0,    0.9,    0.9,  999.0,    1.0,    0.5,    0.4,   -0.2,    0.2,    0.0,   -0.0,    0.1,    0.2,   -0.0,    0.1,    0.2,    0.2,    0.1,   -0.0,    0.0,   -0.1,   -0.0,    0.1,   -0.0,    0.0,   -0.0,    0.2,    0.2,    0.1,   -0.1,    0.1,   -0.4,   -0.4,   -0.1,    0.0,   -0.0,    0.1,    0.1,   -0.0,    0.0,   -0.0,   -0.1,   -0.1,    0.0,    0.2,   -0.0,    0.1,    0.0,    0.0,    0.0,   -0.1,    0.1,   -0.0,   -0.0,  999.0,  999.0,    0.1,    0.1,   -0.0,   -0.0,   -0.2,   -0.2,   -0.2,   -0.0,  999.0,  999.0,   -0.2,  999.0,  999.0,  999.0,  999.0
2011/11/16 09:30,  999.0,    0.1,   -0.1,    0.4,    0.4,    0.2,    0.2,    0.1,   -0.0,   -0.2,    0.1,    0.4,   -0.0,  999.0,    0.8,    0.8,    0.6,    0.2,    0.1,    0.0,   -0.1,   -0.1,   -0.1,   -0.0,    0.0,   -0.1,    0.0,   -0.1,   -0.1,   -0.1,   -0.0,   -0.0,   -0.1,   -0.1,   -0.0,    0.1,    0.2,   -0.0,    0.0,   -0.1,   -0.3,   -0.3,    0.2,   -0.1,   -0.1,   -0.0,   -0.0,    0.1,    0.0,   -0.0,    0.0,   -0.1,   -0.1,    0.0,   -0.1,   -0.0,    0.1,    0.2,   -0.2,   -0.1,    0.0,    0.0,   -0.1,  999.0,   -0.1,   -0.2,    0.1,   -0.1,   -0.1,   -0.3,    0.5,   -0.4,    0.0,  999.0,  999.0,    0.1,  999.0,  999.0,  999.0,  999.0
2011/11/16 09:40,  999.0,  999.0,   -0.0,   -0.0,   -0.0,    0.1,    0.1,    0.0,    0.1,   -0.0,   -0.1,    0.2,    0.3,    0.7,    0.6,    0.1,    0.5,    0.0,    0.0,    0.1,   -0.1,   -0.1,   -0.0,   -0.0,    0.3,    0.4,    0.1,    0.1,   -0.0,   -0.0,    0.1,    0.1,    0.2,   -0.1,    0.1,    0.0,   -0.0,   -0.2,   -0.2,    0.0,   -0.6,   -0.4,   -0.1,    0.1,   -0.0,   -0.2,   -0.1,    0.2,   -0.0,   -0.2,   -0.1,    0.1,   -0.0,   -0.2,   -0.1,    0.0,   -0.1,   -0.0,   -0.0,    0.0,    0.1,   -0.0,   -0.0,  999.0,  999.0,   -0.2,    0.1,    0.0,    0.1,    0.0,  999.0,   -0.1,   -0.3,    0.0,  999.0,  999.0,  999.0,  999.0,  999.0,  999.0
2011/11/16 09:50,  999.0,  999.0,   -0.1,    0.1,    0.1,    0.1,    0.1,  999.0,    0.0,    0.1,    0.3,    0.3,    0.3,    0.2,    0.3,    0.4,    0.1,   -0.0,    0.0,   -0.0,   -0.0,   -0.2,   -0.1,    0.1,    0.0,   -0.0,    0.1,   -0.1,    0.1,   -0.1,   -0.1,    0.0,   -0.0,    0.0,    0.1,   -0.1,    0.1,    0.1,    0.1,   -0.1,    0.0,    0.1,   -0.0,    0.1,    0.2,    0.1,    0.1,    0.1,   -0.2,   -0.0,   -0.1,    0.2,    0.1,    0.0,   -0.1,   -0.3,    0.1,    0.1,    0.1,   -0.0,   -0.2,   -0.1,    0.2,  999.0,    0.1,   -0.1,   -0.0,    0.1,    0.0,   -0.1,   -0.0,    0.0,    0.2,    0.1,  999.0,  999.0,  999.0,  999.0,  999.0,  999.0
2011/11/16 10:00,  999.0,    0.2,    0.1,   -0.0,    0.1,    0.2,   -0.1,   -0.1,   -0.1,    0.2,    0.2,    0.5,    1.0,    0.9,    0.2,    0.2,   -0.1,    0.1,    0.0,    0.0,    0.0,    0.0,    0.1,    0.0,    0.1,   -0.1,    0.1,    0.2,   -0.2,   -0.0,    0.0,   -0.1,   -0.1,   -0.0,   -0.1,   -0.1,   -0.2,   -0.2,   -0.1,   -0.1,   -0.1,   -0.2,    0.0,    0.1,    0.3,    0.1,   -0.2,   -0.2,   -0.0,    0.0,   -0.1,   -0.1,   -0.1,   -0.2,   -0.1,   -0.0,    0.1,    0.1,   -0.2,    0.1,   -0.1,    0.1,   -0.1,    0.0,  999.0,    0.0,    0.1,    0.1,    0.1,    0.1,    0.0,   -0.1,  999.0,  999.0,  999.0,  999.0,  999.0,  999.0,  999.0,  999.0
2011/11/16 10:10,  999.0,  999.0,    0.0,   -0.0,   -0.1,    0.0,   -0.1,    0.1,    0.1,    0.1,    0.3,    0.3,    0.3,    0.3,    0.2,    0.2,   -0.0,    0.2,    0.2,    0.0,   -0.1,   -0.0,    0.1,    0.0,   -0.0,    0.1,    0.0,   -0.1,    0.0,    0.0,    0.0,    0.1,    0.0,   -0.0,   -0.1,    0.0,    0.0,    0.0,    0.1,   -0.0,   -0.3,   -0.5,    0.2,   -0.2,   -0.1,   -0.1,   -0.1,   -0.0,    0.1,    0.1,    0.1,   -0.0,   -0.1,    0.3,    0.1,   -0.1,   -0.0,    0.1,    0.1,    0.1,   -0.1,    0.2,    0.1,  999.0,  999.0,   -0.2,    0.1,    0.0,   -0.1,  999.0,  999.0,  999.0,   -0.0,    0.0,  999.0,  999.0,  999.0,  999.0,  999.0,  999.0
2011/11/16 10:20,  999.0,  999.0,    0.1,    0.2,    0.0,    0.0,   -0.1,   -0.0,    0.1,    0.4,    0.9,    0.8,    0.2,    0.9,    1.4,    0.8,    0.1,    0.1,    0.0,   -0.0,   -0.1,   -0.1,   -0.1,    0.1,    0.1,    0.0,   -0.0,    0.0,    0.0,   -0.1,   -0.0,    0.2,    0.1,   -0.0,    0.0,    0.2,   -0.0,   -0.0,   -0.2,   -0.1,   -0.3,   -0.4,   -0.1,   -0.1,   -0.0,   -0.2,    0.2,    0.1,   -0.0,   -0.1,   -0.1,   -0.0,   -0.0,    0.2,   -0.2,    0.0,   -0.1,    0.1,   -0.1,    0.1,    0.0,    0.1,   -0.2,   -0.2,  999.0,    0.2,    0.2,   -0.0,   -0.1,   -0.0,    0.2,  999.0,   -0.5,   -0.0,  999.0,  999.0,  999.0,  999.0,  999.0,  999.0
2011/11/16 10:30,  999.0,  999.0,    0.1,   -0.1,    0.0,    0.0,    0.1,    0.2,    0.1,    0.2,    0.8,    0.8,    0.8,    0.1,    0.1,    0.2,    0.5,    0.3,   -0.1,    0.1,    0.1,   -0.1,    0.0,   -0.0,    0.1,    0.1,   -0.0,    0.1,   -0.1,   -0.0,    0.0,   -0.0,    0.1,    0.1,    0.2,    0.1,    0.2,    0.2,    0.1,   -0.1,   -0.2,   -0.1,    0.1,    0.1,   -0.0,   -0.3,    0.0,   -0.1,   -0.1,   -0.0,    0.0,   -0.1,   -0.0,    0.0,   -0.1,    0.1,   -0.0,    0.1,    0.1,    0.0,   -0.2,   -0.1,    0.0,   -0.0,    0.1,  999.0,   -0.0,   -0.2,   -0.0,   -0.1,  999.0,   -0.2,  999.0,  999.0,  999.0,  999.0,  999.0,  999.0,  999.0,  999.0
2011/11/16 10:40,  999.0,  999.0,   -0.1,    0.3,    0.2,    0.1,   -0.0,    0.0,    0.7,    0.4,    0.6,   -0.3,    0.5,    1.2,    1.8,    1.0,    1.3,    0.9,    0.2,    0.2,    0.2,    0.0,   -0.1,    0.2,    0.1,    0.0,    0.1,    0.0,   -0.2,    0.1,    0.1,    0.3,    0.2,    0.1,    0.2,   -0.1,    0.0,   -0.0,   -0.1,   -0.1,   -0.3,   -0.3,   -0.0,   -0.2,   -0.2,   -0.2,    0.0,    0.0,   -0.1,   -0.1,    0.1,    0.1,   -0.1,   -0.1,    0.0,   -0.3,   -0.2,   -0.1,   -0.1,   -0.4,    0.2,    0.0,   -0.2,  999.0,   -0.4,   -0.1,   -0.0,    0.2,   -0.2,  999.0,   -0.3,    0.1,  999.0,  999.0,  999.0,  999.0,  999.0,  999.0,  999.0,  999.0
2011/11/16 10:50,  999.0,    0.0,   -0.2,    1.0,    0.3,    0.5,    0.7,    0.6,    0.4,    1.1,    2.0,    1.9,    1.7,    1.1,    3.7,    3.7,    4.0,    2.3,    1.9,    0.4,   -0.0,    0.0,   -0.1,   -0.0,   -0.1,   -0.1,   -0.1,   -0.1,    0.0,   -0.1,    0.1,   -0.1,   -0.1,    0.1,    0.0,    0.2,   -0.1,   -0.1,   -0.1,   -0.2,   -0.2,   -0.0,   -0.0,   -0.1,    0.0,   -0.1,   -0.1,    0.0,    0.1,   -0.2,   -0.2,   -0.1,   -0.0,   -0.1,    0.0,    0.0,   -0.1,    0.2,    0.0,    0.0,   -0.0,   -0.0,    0.1,    0.1,   -0.1,   -0.1,   -0.1,    0.2,   -0.1,   -0.0,    0.0,   -0.1,  999.0,  999.0,  999.0,  999.0,  999.0,  999.0,  999.0,  999.0
2011/11/16 11:00,  999.0,    0.4,    0.3,    1.1,    0.2,   -0.0,    0.1,    0.5,    1.2,    2.4,    3.8,    5.4,    4.0,    3.4,    3.3,    3.3,    3.4,    2.6,    1.3,    0.6,    0.4,    0.2,   -0.0,    0.1,   -0.1,   -0.1,   -0.1,    0.0,   -0.0,   -0.2,   -0.0,   -0.0,   -0.1,    0.1,   -0.1,   -0.1,   -0.1,   -0.3,   -0.1,    0.0,    0.0,   -0.1,    0.0,   -0.0,   -0.1,   -0.1,    0.1,    0.0,    0.1,    0.0,   -0.0,   -0.1,   -0.1,   -0.1,   -0.1,    0.1,    0.0,   -0.0,    0.0,   -0.1,    0.0,    0.0,   -0.0,   -0.0,   -0.1,    0.1,    0.1,    0.0,    0.5,  999.0,  999.0,  999.0,  999.0,  999.0,  999.0,  999.0,  999.0,  999.0,  999.0,  999.0
2011/11/16 11:10,  999.0,    0.1,   -0.2,    0.9,    0.9,    0.4,    0.6,    1.2,    1.5,    1.2,    2.5,    3.1,    4.4,    3.6,    3.6,    3.2,    3.9,    2.7,    6.3,    3.0,    1.1,    0.6,    0.0,    0.1,    0.1,    0.0,    0.0,    0.0,   -0.0,    0.0,    0.1,    0.1,   -0.1,   -0.3,   -0.1,   -0.1,   -0.1,   -0.0,   -0.1,   -0.1,   -0.1,   -0.2,    0.0,   -0.0,   -0.1,    0.1,   -0.0,   -0.1,    0.1,    0.1,   -0.0,   -0.1,   -0.0,    0.0,   -0.1,   -0.1,   -0.0,    0.0,    0.2,   -0.1,    0.1,   -0.0,    0.1,   -0.0,    0.0,    0.0,   -0.1,    0.1,  999.0,  999.0,    0.0,  999.0,   -0.1,  999.0,  999.0,  999.0,  999.0,  999.0,  999.0,  999.0
2011/11/16 11:20,  999.0,   -0.3,    0.3,    0.7,    0.8,   -0.2,   -0.1,    0.3,    0.1,   -0.1,    0.4,    0.4,    0.3,    1.9,    1.9,    2.1,    1.6,    2.6,    3.0,    2.5,    1.1,    0.7,    0.3,   -0.1,   -0.0,   -0.0,    0.2,    0.1,   -0.0,    0.0,    0.0,   -0.1,   -0.1,   -0.1,   -0.0,   -0.0,    0.0,    0.0,   -0.1,   -0.1,   -0.2,   -0.1,    0.0,    0.1,   -0.0,    0.0,    0.0,    0.0,   -0.0,   -0.1,    0.1,    0.1,   -0.1,   -0.1,   -0.1,   -0.1,   -0.1,   -0.0,    0.1,    0.1,   -0.0,   -0.1,    0.0,    0.1,   -0.0,   -0.1,    0.0,   -0.2,   -0.0,    0.1,   -0.1,   -0.3,    0.0,  999.0,  999.0,  999.0,  999.0,  999.0,  999.0,  999.0
2011/11/16 11:30,  999.0,  999.0,    0.0,    0.7,    0.3,   -0.1,    0.0,  999.0,   -0.1,    0.3,    0.7,    0.5,    1.1,    1.8,    2.9,    4.5,    3.9,    2.0,    2.2,    1.4,    0.2,   -0.0,   -0.2,    0.2,    0.2,    0.1,    0.1,   -0.1,    0.1,    0.2,    0.1,   -0.1,    0.1,   -0.0,    0.0,   -0.2,    0.1,    0.1,   -0.1,   -0.1,   -0.2,   -0.0,    0.1,    0.0,   -0.1,   -0.1,   -0.1,   -0.1,   -0.1,    0.1,    0.0,   -0.1,   -0.0,    0.1,    0.0,   -0.1,    0.0,    0.0,    0.0,   -0.0,   -0.1,    0.0,    0.1,    0.0,   -0.1,    0.1,    0.1,   -0.0,    0.0,   -0.1,   -0.1,    0.1,   -0.1,  999.0,  999.0,  999.0,  999.0,  999.0,  999.0,  999.0
2011/11/16 11:40,  999.0,  999.0,   -0.0,    0.3,    0.1,    0.2,    0.1,   -0.1,    0.2,    0.7,    1.6,    1.5,    1.8,    2.2,    3.0,    5.1,    4.2,    1.4,    0.7,    0.1,    0.1,   -0.0,   -0.2,   -0.1,   -0.0,   -0.1,   -0.1,    0.0,   -0.0,    0.2,    0.0,   -0.3,    0.1,    0.1,   -0.0,   -0.0,   -0.1,   -0.1,    0.1,   -0.0,   -0.1,   -0.1,    0.3,    0.0,   -0.0,    0.1,    0.2,   -0.0,   -0.0,   -0.1,    0.2,    0.0,   -0.0,    0.1,    0.0,    0.1,   -0.0,    0.1,   -0.1,    0.0,    0.1,    0.0,    0.0,    0.0,   -0.1,   -0.1,   -0.1,    0.0,   -0.0,   -0.4,  999.0,    0.2,  999.0,  999.0,    0.4,  999.0,  999.0,  999.0,  999.0,  999.0
2011/11/16 11:50,  999.0,    0.0,    0.2,    0.4,    0.4,    0.3,    0.0,   -0.0,   -0.3,    0.2,    0.9,    1.4,    0.4,    0.4,    1.1,    2.4,    2.3,    1.7,    0.8,    0.6,   -0.1,   -0.0,    0.0,    0.1,    0.0,    0.1,    0.0,    0.0,   -0.3,   -0.0,    0.2,   -0.1,    0.1,    0.1,   -0.0,   -0.2,   -0.0,   -0.0,   -0.1,    0.0,   -0.2,   -0.2,    0.0,    0.0,   -0.1,   -0.1,   -0.1,    0.2,    0.0,   -0.2,   -0.1,    0.0,   -0.0,    0.2,    0.0,    0.1,    0.1,    0.0,   -0.1,    0.0,    0.1,   -0.0,    0.0,   -0.0,  999.0,   -0.0,    0.0,   -0.1,   -0.2,    0.1,    0.2,    0.0,   -0.1,  999.0,  999.0,  999.0,  999.0,  999.0,  999.0,  999.0
2011/11/16 12:00,  999.0,  999.0,    0.1,    0.1,   -0.0,   -0.1,   -0.5,   -0.0,   -0.2,    0.6,    0.3,    0.2,    0.5,    1.1,    1.1,    1.1,    1.5,    0.9,    0.8,    0.5,    0.2,    0.1,    0.1,    0.1,   -0.1,    0.2,    0.1,    0.2,   -0.1,   -0.0,    0.2,   -0.0,    0.3,   -0.3,    0.1,   -0.1,    0.1,    0.2,   -0.2,    0.0,   -0.0,   -0.2,   -0.0,    0.1,    0.2,    0.2,    0.0,   -0.0,   -0.1,    0.0,    0.1,   -0.1,    0.1,   -0.1,   -0.1,    0.1,    0.1,    0.0,   -0.1,    0.0,    0.0,   -0.1,   -0.1,   -0.0,    0.1,    0.0,    0.1,    0.2,    0.1,   -0.2,  999.0,    0.1,   -0.0,   -0.1,  999.0,  999.0,  999.0,  999.0,  999.0,  999.0
2011/11/16 12:10,  999.0,  999.0,    0.1,    0.1,   -0.1,    0.0,   -0.1,   -0.2,    0.1,    0.2,    0.2,    0.2,    1.3,    1.6,    1.5,    1.7,    2.3,    1.5,    1.0,    0.3,    0.2,    0.1,    0.0,   -0.0,    0.0,    0.1,    0.2,    0.0,   -0.1,   -0.2,    0.1,   -0.0,    0.0,   -0.1,   -0.0,   -0.1,    0.3,   -0.1,   -0.2,    0.1,   -0.2,   -0.1,    0.1,    0.1,    0.1,    0.0,    0.0,    0.1,    0.2,    0.1,   -0.1,    0.0,   -0.1,   -0.0,   -0.1,   -0.1,    0.1,   -0.1,    0.2,   -0.0,    0.1,    0.0,    0.0,    0.0,   -0.2,    0.1,    0.0,    0.2,    0.3,    0.0,    0.0,    0.3,    0.2,    0.0,  999.0,  999.0,  999.0,  999.0,  999.0,  999.0
2011/11/16 12:20,  999.0,  999.0,   -0.1,    0.0,    0.1,    0.0,    0.0,   -0.1,   -0.1,    0.1,    0.4,    0.5,    0.9,    0.9,    1.5,    2.2,    1.4,    1.0,    0.8,    0.4,    0.1,    0.1,    0.0,    0.1,   -0.1,   -0.2,   -0.0,    0.1,   -0.0,    0.1,   -0.1,   -0.1,    0.2,    0.0,    0.0,   -0.0,   -0.1,    0.2,    0.0,   -0.0,   -0.1,   -0.2,   -0.0,   -0.0,   -0.1,   -0.1,    0.1,    0.0,   -0.2,    0.1,   -0.0,    0.1,   -0.0,   -0.0,    0.1,    0.0,   -0.1,   -0.1,   -0.0,   -0.2,    0.1,   -0.1,   -0.1,   -0.0,    0.0,   -0.1,   -0.0,    0.0,   -0.0,    0.0,   -0.3,    0.3,    0.2,  999.0,  999.0,  999.0,  999.0,  999.0,  999.0,  999.0
2011/11/16 12:30,  999.0,   -0.0,   -0.1,    0.3,    0.1,    0.2,    0.2,   -0.0,    0.5,   -0.1,   -0.0,    0.2,    0.7,    1.8,    1.0,    2.3,    1.9,    1.8,    0.8,    0.4,    0.1,    0.0,    0.0,    0.1,    0.1,   -0.1,   -0.0,   -0.0,    0.1,   -0.0,    0.2,   -0.2,   -0.1,    0.1,    0.2,    0.1,   -0.1,   -0.1,   -0.2,   -0.1,   -0.1,   -0.0,    0.1,    0.0,    0.0,    0.2,    0.1,   -0.0,    0.0,    0.0,    0.1,   -0.0,    0.1,   -0.1,   -0.0,    0.0,    0.0,    0.1,    0.0,    0.0,   -0.1,   -0.0,   -0.0,    0.1,   -0.1,    0.1,    0.2,    0.2,    0.2,   -0.1,   -0.2,    0.4,  999.0,    0.1,  999.0,  999.0,  999.0,  999.0,  999.0,  999.0
2011/11/16 12:40,  999.0,  999.0,    0.0,    0.2,    0.4,    0.2,    0.1,    0.1,    0.3,    0.1,    0.1,    0.1,    0.2,    0.2,    0.4,    0.9,    1.2,    1.3,    0.9,    1.3,    0.4,    0.0,   -0.0,    0.1,    0.1,   -0.1,   -0.1,   -0.1,   -0.1,   -0.0,   -0.0,   -0.0,    0.1,    0.1,    0.0,    0.2,    0.1,   -0.0,    0.1,   -0.1,   -0.2,   -0.1,   -0.1,   -0.0,    0.1,    0.0,   -0.1,   -0.1,    0.1,   -0.0,   -0.1,    0.0,    0.0,    0.0,   -0.1,   -0.1,   -0.0,    0.1,    0.0,    0.0,    0.2,    0.2,   -0.0,   -0.0,   -0.1,    0.1,   -0.2,   -0.1,    0.1,    0.1,    0.0,   -0.2,    0.1,    0.4,  999.0,  999.0,  999.0,  999.0,  999.0,    0.3
2011/11/16 12:50,  999.0,    0.3,    0.3,    0.3,   -0.4,   -0.3,    0.1,    0.3,    0.4,   -0.1,    0.2,    0.2,    0.3,    0.0,    0.5,    0.7,    0.6,    1.0,    1.0,    1.4,    0.7,    0.4,    0.3,    0.1,    0.0,    0.2,    0.1,    0.0,    0.0,    0.2,    0.1,   -0.0,   -0.0,   -0.0,   -0.1,    0.1,    0.1,   -0.0,   -0.1,   -0.1,   -0.1,   -0.1,   -0.0,   -0.0,    0.0,   -0.0,   -0.0,   -0.1,   -0.0,   -0.2,   -0.0,    0.0,    0.1,   -0.0,    0.1,   -0.0,   -0.1,    0.1,    0.0,    0.1,    0.1,    0.1,   -0.2,   -0.1,    0.1,   -0.2,   -0.1,   -0.0,    0.1,  999.0,  999.0,  999.0,    0.1,  999.0,    0.1,  999.0,  999.0,  999.0,  999.0,  999.0
2011/11/16 13:00,  999.0,  999.0,   -0.0,    0.3,   -0.1,   -0.1,   -0.2,    0.0,    0.0,    0.1,    0.1,   -0.0,   -0.1,    0.1,    0.0,    0.1,    0.5,    0.8,    1.2,    0.8,    1.0,    0.5,   -0.1,    0.1,    0.0,    0.0,   -0.0,   -0.1,    0.0,   -0.2,   -0.1,   -0.0,    0.0,    0.0,   -0.1,    0.0,    0.1,    0.0,   -0.0,    0.0,   -0.1,   -0.0,    0.1,    0.1,   -0.0,    0.0,   -0.0,   -0.0,    0.0,    0.1,    0.1,   -0.0,   -0.1,   -0.1,    0.1,   -0.1,    0.1,    0.1,   -0.0,   -0.1,   -0.1,   -0.1,   -0.0,    0.0,    0.1,    0.0,    0.1,   -0.0,    0.0,   -0.2,    0.1,   -0.1,   -0.2,   -0.1,   -0.1,  999.0,  999.0,  999.0,  999.0,  999.0
2011/11/16 13:10,  999.0,   -0.0,   -0.0,    0.1,    0.1,   -0.1,    0.0,    0.2,    0.2,    0.0,    0.1,    0.2,    0.1,    0.0,    0.2,    0.2,    0.2,    0.4,    0.3,    0.7,    0.6,    0.3,    0.1,   -0.1,    0.0,    0.1,   -0.2,   -0.1,   -0.1,   -0.1,    0.1,   -0.1,   -0.0,   -0.0,   -0.1,    0.1,    0.1,   -0.1,   -0.1,   -0.0,   -0.2,   -0.1,    0.1,    0.0,   -0.1,   -0.1,   -0.0,    0.1,    0.0,   -0.1,   -0.1,    0.0,   -0.0,    0.0,   -0.0,   -0.2,   -0.0,   -0.1,   -0.0,   -0.1,   -0.1,    0.1,    0.1,   -0.0,    0.0,    0.1,   -0.0,   -0.0,    0.0,   -0.1,  999.0,   -0.3,    0.0,    0.1,    0.2,   -0.2,  999.0,  999.0,  999.0,  999.0
2011/11/16 13:20,  999.0,   -0.1,   -0.1,   -0.0,   -0.2,    0.0,    0.0,   -0.1,   -0.0,   -0.2,   -0.0,    0.4,    0.5,    0.1,    0.1,    0.2,    0.2,    0.5,    0.8,    0.9,    0.7,    0.2,    0.1,    0.2,    0.1,    0.0,    0.0,   -0.0,   -0.1,   -0.1,   -0.1,   -0.0,   -0.1,   -0.1,   -0.2,   -0.1,   -0.0,   -0.1,   -0.2,   -0.0,   -0.1,   -0.2,   -0.0,   -0.0,   -0.0,   -0.0,    0.0,   -0.0,    0.1,   -0.1,   -0.1,    0.1,   -0.2,   -0.1,   -0.1,   -0.1,    0.0,    0.0,    0.0,   -0.1,    0.0,   -0.1,   -0.0,   -0.1,   -0.1,    0.1,   -0.2,    0.1,  999.0,  999.0,   -0.3,  999.0,    0.2,  999.0,    0.1,  999.0,  999.0,  999.0,  999.0,  999.0
2011/11/16 13:30,  999.0,   -0.1,    0.1,   -0.0,    0.0,    0.1,    0.0,    0.0,    0.1,   -0.1,   -0.1,    0.2,    0.0,   -0.1,   -0.1,    0.0,    0.5,    1.2,    1.1,    1.6,    0.6,   -0.1,   -0.1,   -0.1,   -0.0,   -0.0,    0.0,   -0.0,    0.0,    0.1,    0.1,    0.0,    0.1,    0.0,    0.1,   -0.0,   -0.1,    0.0,    0.0,    0.1,   -0.1,   -0.1,    0.0,   -0.0,   -0.2,   -0.1,   -0.1,    0.0,   -0.1,   -0.0,    0.0,   -0.2,    0.0,    0.2,   -0.1,   -0.0,    0.1,    0.1,    0.0,    0.2,    0.0,   -0.1,    0.2,    0.2,    0.1,   -0.1,   -0.2,   -0.3,   -0.6,    0.1,   -0.1,   -0.0,   -0.1,  999.0,   -0.3,  999.0,  999.0,  999.0,  999.0,  999.0
2011/11/16 13:40,  999.0,    0.2,   -0.0,    0.1,    0.0,    0.0,    0.2,    0.0,  999.0,    0.1,   -0.1,    0.2,    0.1,    0.2,   -0.0,    0.3,    0.2,    0.2,    0.5,    0.4,    0.1,    0.1,    0.1,    0.1,    0.1,   -0.0,    0.0,    0.0,   -0.1,    0.1,    0.0,    0.0,   -0.0,    0.0,    0.1,   -0.0,    0.1,   -0.0,    0.0,   -0.1,   -0.1,   -0.0,    0.1,    0.1,   -0.0,   -0.1,   -0.0,    0.0,   -0.1,    0.0,   -0.0,    0.2,    0.0,   -0.1,   -0.1,    0.0,    0.3,    0.0,   -0.0,   -0.1,    0.1,   -0.1,   -0.1,    0.1,    0.1,   -0.1,   -0.1,    0.0,   -0.5,  999.0,    0.2,  999.0,  999.0,    0.2,    0.2,  999.0,  999.0,  999.0,  999.0,  999.0
2011/11/16 13:50,  999.0,    0.2,    0.0,   -0.1,   -0.1,    0.0,    0.1,   -0.1,    0.1,    0.1,    0.3,    0.4,    0.1,    0.1,    0.4,    0.4,    0.3,    0.2,    0.2,    0.1,   -0.1,   -0.0,   -0.0,    0.0,   -0.0,   -0.0,   -0.0,    0.0,    0.0,   -0.1,    0.0,    0.1,    0.0,   -0.1,   -0.0,    0.0,    0.0,   -0.0,   -0.1,    0.0,    0.1,    0.0,   -0.0,   -0.0,   -0.1,    0.0,    0.0,    0.1,   -0.1,   -0.0,   -0.1,   -0.1,   -0.1,   -0.2,   -0.2,   -0.1,   -0.2,    0.2,    0.0,    0.0,   -0.3,    0.1,   -0.1,   -0.2,    0.0,   -0.0,    0.1,    0.0,    0.0,  999.0,   -0.0,   -0.2,   -0.0,    0.1,  999.0,  999.0,  999.0,  999.0,  999.0,  999.0
2011/11/16 14:00,  999.0,  999.0,    0.1,    0.2,    0.1,    0.1,    0.1,    0.2,    0.1,    0.2,    0.1,    0.0,    0.2,    0.4,    0.3,    0.7,    0.2,    0.1,    0.1,    0.2,    0.1,    0.1,    0.1,    0.0,    0.1,    0.1,   -0.1,    0.1,   -0.1,    0.0,    0.0,   -0.1,   -0.0,    0.0,    0.0,    0.1,    0.0,   -0.1,   -0.0,    0.0,   -0.1,   -0.2,   -0.1,   -0.0,    0.1,    0.1,    0.2,   -0.1,   -0.1,    0.0,    0.1,   -0.0,   -0.1,    0.0,   -0.1,   -0.0,   -0.1,   -0.0,    0.1,    0.1,    0.0,   -0.1,    0.1,    0.2,    0.3,    0.1,   -0.1,    0.1,  999.0,  999.0,   -0.1,    0.2,  999.0,  999.0,  999.0,  999.0,  999.0,  999.0,  999.0,  999.0
2011/11/16 14:10,  999.0,  999.0,    0.1,   -0.1,   -0.0,   -0.1,   -0.1,   -0.1,   -0.0,   -0.1,   -0.0,    0.0,    0.1,    0.1,    0.5,    0.7,    0.1,    0.3,    0.0,   -0.1,   -0.0,   -0.0,    0.0,    0.0,    0.0,   -0.1,    0.0,   -0.0,   -0.1,   -0.1,   -0.1,    0.2,    0.1,   -0.1,   -0.2,   -0.0,   -0.0,   -0.1,    0.1,   -0.0,   -0.2,   -0.2,    0.1,    0.1,    0.1,    0.2,    0.0,    0.1,   -0.1,    0.0,    0.1,    0.0,   -0.1,   -0.2,    0.0,    0.1,    0.1,    0.1,   -0.1,   -0.2,   -0.1,   -0.4,    0.1,    0.1,   -0.1,    0.0,    0.1,    0.1,   -0.1,   -0.3,   -0.2,    0.2,   -0.1,    0.3,   -0.1,  999.0,  999.0,  999.0,  999.0,  999.0
2011/11/16 14:20,  999.0,   -0.0,   -0.1,    0.2,   -0.1,   -0.0,   -0.0,   -0.2,    0.0,    0.1,    0.1,    0.2,  999.0,    0.6,    0.0,    0.6,   -0.0,    0.1,    0.1,   -0.1,    0.1,   -0.0,   -0.1,   -0.1,   -0.0,   -0.0,   -0.1,    0.1,   -0.2,   -0.1,   -0.1,   -0.0,   -0.1,    0.0,   -0.0,   -0.1,    0.1,   -0.0,    0.1,   -0.0,   -0.1,   -0.0,    0.1,   -0.1,   -0.1,    0.1,   -0.0,   -0.0,    0.0,    0.0,   -0.1,    0.0,   -0.1,   -0.0,   -0.0,   -0.0,   -0.1,    0.1,   -0.1,   -0.0,    0.1,    0.2,    0.1,   -0.1,   -0.2,   -0.2,   -0.2,    0.2,    0.1,   -0.3,    0.1,    0.1,   -0.1,    0.2,  999.0,  999.0,  999.0,  999.0,  999.0,  999.0
2011/11/16 14:30,  999.0,  999.0,   -0.0,    0.1,    0.1,    0.1,    0.0,    0.1,    0.1,    0.0,    0.1,    0.4,    0.5,    0.7,    0.5,    0.7,    0.3,    0.1,   -0.0,  999.0,    0.0,    0.1,    0.1,    0.1,    0.0,    0.1,   -0.1,   -0.0,   -0.0,   -0.1,    0.1,    0.1,    0.0,    0.1,   -0.1,    0.0,   -0.0,    0.0,    0.1,   -0.1,   -0.2,    0.0,    0.1,    0.1,   -0.1,   -0.0,   -0.0,    0.1,   -0.1,   -0.1,   -0.1,   -0.1,    0.0,   -0.2,   -0.1,   -0.1,    0.1,    0.5,    0.1,   -0.0,    0.1,   -0.0,    0.2,    0.2,   -0.1,   -0.1,   -0.1,  999.0,   -0.3,    0.2,   -0.1,    0.2,  999.0,    0.0,  999.0,  999.0,  999.0,  999.0,  999.0,  999.0
2011/11/16 14:40,  999.0,  999.0,   -0.1,    0.1,   -0.1,   -0.2,    0.0,    0.1,   -0.0,   -0.1,    0.1,    0.2,    0.8,    0.8,    0.3,    0.4,    0.2,    0.1,   -0.1,   -0.0,   -0.0,    0.0,    0.0,    0.0,   -0.1,    0.0,   -0.0,    0.0,    0.1,    0.2,    0.2,    0.0,   -0.0,   -0.0,   -0.1,   -0.0,    0.1,   -0.0,    0.1,    0.1,    0.0,   -0.1,   -0.1,   -0.1,   -0.0,   -0.0,   -0.0,   -0.1,   -0.1,   -0.2,   -0.1,    0.0,    0.1,    0.2,   -0.0,    0.1,    0.3,    0.0,    0.2,    0.1,    0.3,    0.0,    0.1,   -0.0,    0.1,   -0.1,   -0.1,    0.0,  999.0,  999.0,  999.0,  999.0,  999.0,    0.1,  999.0,  999.0,  999.0,  999.0,  999.0,  999.0
2011/11/16 14:50,  999.0,   -0.1,   -0.1,    0.1,   -0.1,   -0.0,    0.0,    0.0,  999.0,   -0.1,   -0.1,    0.1,    0.3,    0.6,    0.5,    1.0,    0.4,    0.1,    0.2,    0.0,   -0.1,   -0.2,   -0.1,    0.1,    0.1,    0.1,    0.1,    0.0,   -0.1,   -0.0,    0.1,   -0.2,   -0.0,    0.0,   -0.0,    0.0,    0.1,   -0.1,    0.0,    0.1,   -0.1,   -0.0,   -0.1,    0.1,    0.1,    0.1,    0.0,    0.1,    0.1,    0.0,   -0.1,    0.1,   -0.0,   -0.1,    0.2,    0.0,    0.1,   -0.0,   -0.1,    0.0,   -0.3,    0.0,    0.1,    0.0,    0.0,    0.1,    0.2,  999.0,  999.0,  999.0,  999.0,  999.0,   -0.3,  999.0,  999.0,  999.0,  999.0,  999.0,  999.0,  999.0
2011/11/16 15:00,  999.0,    0.1,   -0.2,    0.1,    0.0,    0.2,    0.1,    0.1,    0.3,    0.3,    0.5,    0.3,    0.6,    1.2,    1.1,    1.0,    0.3,    0.2,    0.0,   -0.0,   -0.0,    0.1,    0.1,   -0.0,   -0.0,    0.1,    0.0,   -0.1,   -0.0,    0.0,   -0.0,   -0.0,   -0.0,    0.0,    0.0,   -0.0,   -0.0,    0.0,   -0.0,   -0.0,   -0.0,   -0.0,    0.2,    0.0,   -0.0,   -0.0,    0.0,   -0.1,   -0.0,   -0.1,   -0.1,   -0.1,   -0.1,    0.1,    0.0,   -0.2,   -0.0,    0.1,    0.0,   -0.0,    0.1,   -0.1,    0.0,   -0.0,    0.2,   -0.0,   -0.0,   -0.2,  999.0,    0.1,  999.0,  999.0,   -0.0,  999.0,  999.0,  999.0,  999.0,  999.0,  999.0,  999.0
2011/11/16 15:10,  999.0,    0.2,    0.0,    0.0,    0.0,    0.1,    0.2,    0.1,    0.2,    0.3,    0.5,    0.6,    1.7,    1.8,    1.8,    0.8,    0.2,    0.2,    0.1,    0.0,    0.2,    0.1,   -0.1,    0.1,    0.1,   -0.1,    0.0,    0.0,    0.1,   -0.0,   -0.0,   -0.1,   -0.1,   -0.0,   -0.1,    0.1,    0.1,   -0.1,    0.0,   -0.0,   -0.0,   -0.1,    0.2,    0.1,    0.1,   -0.0,    0.0,   -0.1,    0.1,   -0.1,    0.2,    0.1,   -0.3,   -0.1,   -0.0,    0.1,    0.1,   -0.0,    0.2,    0.1,   -0.1,    0.0,   -0.0,   -0.3,    0.0,    0.1,    0.1,    0.0,    0.1,  999.0,  999.0,  999.0,   -0.3,    0.1,  999.0,  999.0,  999.0,  999.0,  999.0,  999.0
2011/11/16 15:20,  999.0,    0.2,    0.1,    0.0,   -0.1,    0.2,    0.1,    0.0,    0.1,    0.4,   -0.0,    0.1,    0.7,    1.2,    1.7,    1.1,    0.2,    0.2,    0.1,   -0.0,   -0.0,   -0.0,    0.0,    0.0,    0.2,    0.1,    0.0,    0.0,   -0.0,   -0.1,   -0.0,    0.1,   -0.1,    0.0,    0.0,    0.1,    0.0,   -0.0,   -0.0,   -0.1,   -0.1,   -0.1,    0.0,    0.0,    0.1,    0.0,    0.0,   -0.1,   -0.2,   -0.0,    0.1,    0.2,    0.1,   -0.0,   -0.1,   -0.1,   -0.2,    0.0,    0.0,    0.3,    0.0,   -0.1,    0.0,    0.2,    0.2,   -0.4,   -0.2,  999.0,   -0.0,  999.0,  999.0,  999.0,    0.1,    0.1,  999.0,  999.0,  999.0,  999.0,  999.0,  999.0
2011/11/16 15:30,  999.0,    0.2,    0.1,    0.4,    0.2,    0.2,    0.6,    0.5,    0.6,    0.7,    0.7,    0.5,    1.1,    2.8,    2.9,    1.1,    0.3,    0.1,    0.1,    0.0,    0.0,    0.0,   -0.0,    0.2,    0.0,    0.0,    0.2,    0.0,    0.3,    0.0,   -0.1,   -0.1,    0.0,   -0.0,   -0.1,    0.0,    0.0,   -0.1,    0.0,    0.1,   -0.2,   -0.2,   -0.1,   -0.1,   -0.2,   -0.1,   -0.1,    0.1,    0.1,    0.1,    0.1,    0.1,    0.1,    0.1,    0.1,    0.1,   -0.1,    0.1,    0.1,    0.0,   -0.0,   -0.1,    0.2,   -0.0,    0.0,   -0.0,    0.0,   -0.0,    0.2,   -0.0,   -0.2,   -0.2,    0.2,   -0.1,  999.0,  999.0,  999.0,  999.0,  999.0,  999.0
2011/11/16 15:40,  999.0,   -0.1,   -0.2,    0.6,    0.2,    1.0,    1.3,    0.9,    1.4,    1.5,    1.6,    5.3,    6.0,    7.1,  999.0,    1.2,    0.1,    0.1,   -0.0,   -0.1,   -0.0,   -0.1,   -0.1,    0.1,    0.1,    0.1,   -0.1,    0.1,   -0.0,   -0.1,   -0.1,    0.0,    0.2,    0.0,    0.0,    0.1,   -0.1,   -0.0,    0.1,   -0.1,   -0.5,   -0.3,   -0.0,   -0.4,   -0.0,    0.1,   -0.2,   -0.0,   -0.0,    0.0,   -0.0,    0.1,    0.1,   -0.0,   -0.1,   -0.1,    0.0,    0.1,   -0.0,   -0.0,   -0.2,   -0.0,   -0.1,    0.1,    0.2,   -0.1,    0.1,    0.2,  999.0,  999.0,  999.0,    0.0,   -0.1,    0.0,  999.0,  999.0,  999.0,  999.0,  999.0,  999.0
2011/11/16 15:50,  999.0,    0.0,    0.3,    1.5,    1.1,    1.0,    0.6,    1.0,    1.0,    1.9,    4.9,    6.0,    7.6,    8.1,    8.4,    2.7,    0.5,    0.1,    0.0,   -0.0,    0.1,    0.0,    0.0,    0.1,    0.0,    0.1,    0.4,   -0.1,   -0.0,    0.1,   -0.4,    0.1,   -0.2,   -0.2,    0.0,    0.1,    0.0,    0.1,   -0.2,   -0.1,   -0.3,   -0.1,   -0.1,    0.1,    0.0,    0.2,    0.2,    0.0,   -0.1,    0.0,    0.0,   -0.0,    0.1,    0.0,   -0.0,   -0.0,    0.0,    0.1,    0.1,    0.0,   -0.0,   -0.1,   -0.2,   -0.1,  999.0,    0.1,    0.2,   -0.3,    0.2,  999.0,  999.0,  999.0,  999.0,    0.2,  999.0,  999.0,  999.0,  999.0,  999.0,  999.0
2011/11/16 16:00,  999.0,    0.6,    0.7,    1.3,    1.4,    1.8,    1.5,    1.5,    1.1,    1.4,    2.5,    5.9,    8.5,  999.0,    3.9,    1.7,    0.4,    0.0,   -0.0,    0.0,    0.1,    0.2,    0.1,    0.2,    0.5,    0.3,    0.1,    0.0,   -0.1,    0.3,    0.1,    0.3,   -0.0,    0.0,    0.1,   -0.0,    0.0,   -0.1,   -0.1,    0.0,   -0.4,   -0.3,    0.2,   -0.1,   -0.1,    0.1,    0.0,    0.1,   -0.1,    0.1,   -0.1,   -0.1,    0.1,   -0.1,   -0.0,   -0.0,   -0.1,   -0.0,   -0.1,    0.0,    0.1,    0.0,    0.0,    0.2,   -0.1,    0.1,   -0.1,   -0.1,  999.0,  999.0,  999.0,  999.0,  999.0,  999.0,  999.0,  999.0,  999.0,  999.0,  999.0,  999.0
2011/11/16 16:10,  999.0,    0.6,    0.2,    0.6,    0.4,    0.5,    1.0,    0.8,    2.1,    4.9,    5.5,    5.3,    6.9,  999.0,    4.5,    2.6,    0.5,    0.1,    0.1,    0.1,    0.1,   -0.0,    0.1,    0.1,    0.2,    0.2,   -0.0,   -0.1,   -0.0,   -0.1,    0.2,   -0.1,    0.2,   -0.0,   -0.1,    0.0,   -0.1,    0.1,   -0.0,   -0.0,   -0.1,   -0.1,   -0.1,   -0.1,   -0.1,    0.1,   -0.1,   -0.0,    0.1,    0.1,    0.1,    0.2,   -0.0,    0.0,    0.3,   -0.2,    0.0,    0.1,   -0.1,    0.1,   -0.1,   -0.0,    0.0,    0.1,    0.0,    0.0,    0.0,    0.4,  999.0,  999.0,  999.0,  999.0,  999.0,  999.0,  999.0,  999.0,  999.0,  999.0,  999.0,  999.0
2011/11/16 16:20,  999.0,    0.1,    0.2,    0.2,    0.4,    0.7,    0.4,    0.8,    1.0,    1.7,    2.5,    2.0,    4.0,    3.3,    1.5,    0.9,    0.2,    0.1,    0.1,    0.1,    0.0,    0.0,    0.1,   -0.0,    0.1,   -0.0,    0.3,   -0.1,    0.2,    0.1,    0.3,   -0.1,    0.1,   -0.0,   -0.3,   -0.1,    0.1,   -0.1,    0.2,    0.2,   -0.0,   -0.1,    0.0,    0.0,    0.1,    0.1,    0.0,    0.1,    0.0,   -0.1,   -0.1,    0.1,   -0.1,   -0.2,   -0.1,    0.1,    0.0,    0.0,   -0.2,    0.0,    0.0,   -0.1,   -0.1,   -0.3,  999.0,   -0.1,   -0.0,   -0.1,    0.4,    0.2,  999.0,  999.0,  999.0,  999.0,  999.0,  999.0,  999.0,  999.0,  999.0,  999.0
2011/11/16 16:30,  999.0,    0.2,    0.4,    0.2,    0.1,    0.1,    0.4,    0.7,    1.1,    1.1,    1.3,    2.1,    1.8,    1.3,    0.6,    0.2,    0.1,   -0.1,    0.1,    0.2,    0.1,   -0.0,   -0.2,   -0.1,    0.0,   -0.0,    0.1,    0.2,    0.2,   -0.1,    0.1,    0.0,   -0.1,    0.1,    0.2,    0.0,  999.0,   -0.1,    0.1,   -0.1,   -0.3,   -0.1,   -0.1,   -0.1,   -0.1,    0.0,   -0.1,   -0.0,    0.0,   -0.1,   -0.1,   -0.2,   -0.2,   -0.1,   -0.1,   -0.1,   -0.0,   -0.0,   -0.0,   -0.1,    0.2,    0.2,   -0.2,   -0.1,    0.1,   -0.1,   -0.2,    0.1,   -0.4,  999.0,  999.0,  999.0,  999.0,  999.0,  999.0,  999.0,  999.0,  999.0,  999.0,  999.0
2011/11/16 16:40,  999.0,    0.2,    0.2,    0.1,    0.0,   -0.0,    0.1,    0.2,    0.5,    1.0,    3.7,    2.7,    2.5,    2.2,    2.4,    1.4,    0.5,    0.2,    0.1,    0.1,   -0.0,    0.0,    0.0,   -0.1,    0.2,    0.2,    0.1,   -0.1,   -0.1,    0.0,    0.1,    0.1,    0.1,   -0.1,   -0.1,   -0.3,   -0.2,    0.1,    0.1,    0.1,   -0.3,   -0.2,   -0.1,    0.1,    0.0,    0.1,   -0.0,    0.0,   -0.1,   -0.1,    0.0,   -0.1,    0.2,   -0.1,   -0.0,    0.1,    0.0,    0.3,    0.0,    0.1,    0.2,   -0.1,    0.4,    0.3,  999.0,   -0.2,   -0.3,   -0.3,   -0.2,  999.0,  999.0,  999.0,  999.0,  999.0,  999.0,  999.0,  999.0,  999.0,  999.0,  999.0
2011/11/16 16:50,  999.0,   -0.1,   -0.0,    0.1,    0.1,    0.1,    0.2,    0.2,    0.4,    0.6,    2.1,    2.2,    2.2,    2.6,    2.3,    2.3,    1.4,    0.2,    0.0,    0.2,    0.1,    0.2,    0.2,    0.2,    0.1,    0.0,   -0.1,    0.3,   -0.0,   -0.0,    0.2,    0.0,    0.1,    0.1,    0.0,    0.1,  999.0,    0.5,   -0.1,   -0.5,   -0.1,   -0.1,    0.1,   -0.0,   -0.3,    0.3,    0.1,    0.1,    0.0,   -0.1,    0.1,    0.1,   -0.1,    0.0,   -0.0,    0.1,    0.0,    0.0,   -0.1,    0.2,   -0.3,   -0.2,    0.1,   -0.4,   -0.1,   -0.2,   -0.0,   -0.0,  999.0,  999.0,  999.0,  999.0,  999.0,  999.0,  999.0,  999.0,  999.0,  999.0,  999.0,  999.0
2011/11/16 17:00,  999.0,   -0.1,    0.0,   -0.1,    0.2,    0.0,   -0.1,   -0.1,    0.3,    0.3,    0.6,    0.7,    1.3,    2.2,    2.0,    0.6,   -0.3,   -0.0,    0.1,    0.1,    0.3,    0.3,    0.2,    0.1,    0.0,    0.1,    0.2,    0.1,   -0.1,    0.0,   -0.0,   -0.0,    0.1,   -0.2,    0.1,    0.1,   -0.2,   -0.4,   -0.0,   -0.2,   -0.9,   -0.3,   -0.2,   -0.1,   -0.0,   -0.2,   -0.3,   -0.1,    0.0,    0.1,   -0.0,   -0.2,    0.1,    0.2,   -0.2,   -0.2,    0.1,   -0.1,    0.0,   -0.1,    0.1,    0.3,    0.0,    0.3,    0.2,   -0.2,  999.0,   -0.4,  999.0,  999.0,  999.0,  999.0,  999.0,  999.0,  999.0,  999.0,  999.0,  999.0,  999.0,  999.0
2011/11/16 17:10,  999.0,  999.0,    0.6,    0.2,    0.4,    0.3,    0.1,  999.0,  999.0,    2.6,    5.1,    0.1,    4.8,  999.0,  999.0,  999.0,    0.4,   -0.0,   -0.2,   -0.2,   -0.0,    0.1,   -0.1,    0.1,   -0.0,   -0.3,    0.7,   -0.4,   -0.1,   -0.2,   -0.2,    0.2,    0.1,   -0.1,    0.2,    0.0,   -0.0,    0.1,  999.0,    0.1,  999.0,  999.0,  999.0,    0.1,   -0.0,    0.1,    0.2,    0.0,    0.1,  999.0,   -0.0,   -0.0,    0.2,   -0.0,    0.2,   -0.0,    0.1,    0.1,   -0.2,   -0.1,    0.0,   -0.3,   -0.4,   -0.0,   -0.1,  999.0,  999.0,   -0.5,  999.0,   -0.2,  999.0,  999.0,  999.0,  999.0,  999.0,  999.0,  999.0,  999.0,  999.0,  999.0
2011/11/16 17:20,  999.0,    0.2,  999.0,  999.0,  999.0,  999.0,  999.0,  999.0,  999.0,  999.0,  999.0,  999.0,  999.0,  999.0,  999.0,  999.0,  999.0,   -1.0,    0.0,  999.0,  999.0,  999.0,  999.0,    1.0,  999.0,  999.0,    0.8,   -0.1,  999.0,   -0.2,   -0.1,    0.2,  999.0,  999.0,  999.0,    0.0,    0.2,  999.0,  999.0,  999.0,  999.0,  999.0,  999.0,  999.0,  999.0,   -0.1,   -0.2,  999.0,   -0.1,   -0.6,    0.1,    0.0,   -0.0,   -0.2,   -0.0,   -0.0,   -0.0,    0.2,    0.1,    0.1,   -0.1,   -0.3,   -0.3,    0.0,    0.0,   -0.2,    0.0,   -0.1,    0.1,   -0.0,   -0.2,    0.2,  999.0,  999.0,  999.0,  999.0,  999.0,  999.0,  999.0,  999.0
2011/11/16 17:30,  999.0,  999.0,  999.0,  999.0,  999.0,  999.0,  999.0,  999.0,  999.0,  999.0,  999.0,  999.0,  999.0,  999.0,  999.0,  999.0,  999.0,  999.0,   -0.1,  999.0,  999.0,  999.0,    0.3,    0.2,   -0.0,    0.4,    0.1,    0.6,   -0.0,    0.2,   -0.0,   -0.0,  999.0,   -0.4,   -0.3,   -0.1,  999.0,  999.0,   -0.2,  999.0,  999.0,   -0.2,   -0.3,  999.0,   -0.1,    0.0,    0.1,    0.1,    0.3,    0.2,   -0.2,   -0.2,   -0.2,   -0.1,   -0.2,   -0.1,    0.2,    0.0,    0.1,    0.5,   -0.1,    0.3,   -0.1,    0.2,   -0.2,    0.2,    0.3,   -0.0,  999.0,   -0.1,    0.0,   -0.1,  999.0,  999.0,  999.0,  999.0,  999.0,  999.0,  999.0,  999.0
2011/11/16 17:40,  999.0,  999.0,  999.0,  999.0,  999.0,  999.0,  999.0,  999.0,  999.0,  999.0,  999.0,  999.0,  999.0,  999.0,  999.0,  999.0,  999.0,  999.0,  999.0,  999.0,  999.0,  999.0,   -0.6,    0.5,    0.0,   -0.3,   -0.0,    0.1,   -0.4,   -0.4,    0.0,    0.1,    0.3,  999.0,   -0.5,  999.0,  999.0,  999.0,   -0.1,    0.0,   -0.6,    0.4,   -0.2,   -0.1,    0.2,  999.0,   -0.0,    0.1,    0.1,   -0.0,    0.2,    0.0,   -0.1,    0.1,    0.1,    0.1,    0.2,    0.0,   -0.1,    0.1,    0.1,    0.0,   -0.1,    0.1,   -0.0,    0.1,   -0.2,    0.1,   -0.1,    0.1,    0.3,  999.0,    0.1,  999.0,  999.0,  999.0,  999.0,  999.0,  999.0,  999.0
2011/11/16 17:50,  999.0,  999.0,  999.0,  999.0,  999.0,  999.0,  999.0,  999.0,  999.0,  999.0,  999.0,  999.0,  999.0,  999.0,  999.0,  999.0,  999.0,  999.0,  999.0,  999.0,  999.0,  999.0,  999.0,  999.0,   -0.1,   -0.5,   -1.0,   -0.8,   -0.3,   -1.1,   -0.3,   -0.1,    0.1,  999.0,  999.0,    0.0,  999.0,  999.0,  999.0,  999.0,   -0.2,  999.0,    0.2,    0.3,    0.4,  999.0,    0.2,   -0.2,    0.0,    0.2,   -0.1,   -0.0,    0.0,    0.1,   -0.1,   -0.2,   -0.1,  999.0,    0.0,  999.0,   -0.2,   -0.1,   -0.4,   -0.2,   -0.1,  999.0,   -0.5,  999.0,  999.0,    0.0,  999.0,  999.0,  999.0,  999.0,  999.0,  999.0,  999.0,  999.0,  999.0,  999.0
2011/11/16 18:00,  999.0,  999.0,  999.0,  999.0,  999.0,  999.0,  999.0,  999.0,  999.0,  999.0,  999.0,  999.0,  999.0,  999.0,  999.0,  999.0,  999.0,  999.0,  999.0,  999.0,  999.0,  999.0,  999.0,  999.0,  999.0,  999.0,    0.5,   -0.4,   -0.6,   -0.0,    0.2,   -0.2,  999.0,   -0.4,  999.0,  999.0,  999.0,  999.0,   -0.0,  999.0,   -0.8,  999.0,  999.0,  999.0,    0.3,  999.0,   -0.0,   -0.2,    0.1,   -0.1,   -0.5,   -0.2,   -0.1,   -0.1,    0.1,   -0.0,   -0.2,   -0.5,   -0.0,  999.0,    0.0,   -0.3,  999.0,  999.0,    0.0,   -0.3,  999.0,  999.0,  999.0,  999.0,  999.0,  999.0,  999.0,  999.0,  999.0,  999.0,  999.0,  999.0,  999.0,  999.0
2011/11/16 18:10,  999.0,  999.0,  999.0,  999.0,  999.0,  999.0,  999.0,  999.0,  999.0,  999.0,  999.0,  999.0,  999.0,  999.0,  999.0,  999.0,  999.0,    9.5,  999.0,  999.0,  999.0,  999.0,  999.0,  999.0,   -0.7,   -0.7,    0.1,    0.0,   -0.1,   -0.1,   -0.1,    0.1,  999.0,   -0.8,  999.0,  999.0,  999.0,    0.3,  999.0,   -0.1,    0.2,   -0.2,  999.0,  999.0,   -0.6,   -0.1,    0.1,    0.1,   -0.1,    0.0,   -0.1,    0.2,    0.4,   -0.2,    0.1,   -0.0,   -0.1,   -0.2,    0.1,   -0.1,    0.0,   -0.1,   -0.1,   -0.1,   -0.0,    0.2,    0.0,   -0.1,   -0.2,   -0.2,  999.0,   -0.1,  999.0,  999.0,  999.0,  999.0,  999.0,  999.0,  999.0,  999.0
2011/11/16 18:20,  999.0,  999.0,  999.0,  999.0,  999.0,  999.0,  999.0,  999.0,  999.0,  999.0,  999.0,  999.0,  999.0,  999.0,  999.0,  999.0,  999.0,  999.0,  999.0,  999.0,   -0.0,  999.0,  999.0,    0.2,    0.5,    0.4,    0.3,    0.3,    1.0,   -0.3,    0.1,   -0.1,  999.0,    0.1,  999.0,  999.0,  999.0,  999.0,  999.0,  999.0,  999.0,  999.0,  999.0,  999.0,  999.0,   -0.0,  999.0,    0.2,    0.1,  999.0,   -0.2,   -0.4,   -0.1,   -0.4,   -0.6,   -0.0,  999.0,  999.0,  999.0,  999.0,    0.2,    0.1,  999.0,    0.3,   -0.0,  999.0,   -0.2,    0.1,  999.0,   -1.1,  999.0,  999.0,  999.0,  999.0,  999.0,  999.0,  999.0,  999.0,  999.0,  999.0
2011/11/16 18:30,  999.0,  999.0,  999.0,  999.0,  999.0,  999.0,  999.0,  999.0,  999.0,  999.0,  999.0,  999.0,  999.0,  999.0,  999.0,  999.0,  999.0,  999.0,  999.0,  999.0,    0.6,  999.0,  999.0,  999.0,  999.0,  999.0,  999.0,    0.8,  999.0,   -0.0,    0.1,    0.3,    0.6,  999.0,  999.0,  999.0,  999.0,  999.0,  999.0,  999.0,  999.0,  999.0,  999.0,   -0.1,  999.0,  999.0,  999.0,  999.0,  999.0,  999.0,  999.0,  999.0,  999.0,  999.0,  999.0,    0.5,  999.0,  999.0,    0.4,  999.0,  999.0,  999.0,  999.0,  999.0,    0.0,    0.1,  999.0,    0.1,  999.0,  999.0,  999.0,  999.0,  999.0,  999.0,  999.0,  999.0,  999.0,  999.0,  999.0,  999.0
2011/11/16 18:40,  999.0,  999.0,  999.0,  999.0,  999.0,  999.0,  999.0,  999.0,  999.0,  999.0,  999.0,  999.0,  999.0,  999.0,  999.0,  999.0,  999.0,  999.0,  999.0,    1.0,    0.5,    1.5,  999.0,   -0.2,    0.3,   -0.1,    0.0,    0.4,    0.3,    0.3,    0.2,  999.0,  999.0,  999.0,    0.0,  999.0,  999.0,  999.0,    0.4,   -0.6,    0.3,  999.0,  999.0,  999.0,  999.0,  999.0,    0.1,   -0.1,    0.1,   -0.1,   -0.0,   -0.2,   -0.1,   -0.1,  999.0,    0.1,  999.0,  999.0,   -0.3,   -0.3,  999.0,  999.0,   -0.0,    0.2,   -0.0,  999.0,   -0.1,    0.3,  999.0,  999.0,  999.0,  999.0,  999.0,  999.0,  999.0,  999.0,  999.0,  999.0,  999.0,  999.0
2011/11/16 18:50,  999.0,  999.0,  999.0,  999.0,  999.0,  999.0,  999.0,  999.0,  999.0,  999.0,  999.0,  999.0,  999.0,  999.0,  999.0,  999.0,  999.0,  999.0,  999.0,  999.0,  999.0,  999.0,  999.0,  999.0,  999.0,  999.0,  999.0,    0.7,    1.9,  999.0,    0.3,   -0.1,   -0.0,    0.4,    0.5,   -0.1,  999.0,  999.0,  999.0,  999.0,    0.0,  999.0,  999.0,  999.0,  999.0,   -0.1,  999.0,    0.4,    0.2,    0.3,    0.3,  999.0,    0.3,    0.0,   -0.1,  999.0,  999.0,  999.0,  999.0,  999.0,  999.0,  999.0,   -0.4,    0.1,   -0.2,   -0.2,  999.0,  999.0,  999.0,  999.0,  999.0,  999.0,  999.0,  999.0,  999.0,  999.0,  999.0,  999.0,  999.0,  999.0
2011/11/16 19:00,  999.0,  999.0,  999.0,  999.0,  999.0,  999.0,  999.0,  999.0,  999.0,  999.0,  999.0,  999.0,  999.0,  999.0,  999.0,  999.0,    8.2,  999.0,  999.0,  999.0,  999.0,  999.0,  999.0,  999.0,  999.0,  999.0,  999.0,  999.0,  999.0,  999.0,  999.0,  999.0,  999.0,  999.0,  999.0,  999.0,  999.0,  999.0,  999.0,  999.0,  999.0,  999.0,  999.0,  999.0,  999.0,  999.0,  999.0,  999.0,  999.0,  999.0,  999.0,  999.0,  999.0,    0.4,  999.0,  999.0,  999.0,  999.0,  999.0,  999.0,  999.0,  999.0,  999.0,  999.0,  999.0,  999.0,  999.0,  999.0,  999.0,  999.0,  999.0,  999.0,  999.0,  999.0,  999.0,  999.0,  999.0,  999.0,  999.0,  999.0
2011/11/16 19:10,  999.0,  999.0,  999.0,  999.0,  999.0,  999.0,  999.0,  999.0,  999.0,  999.0,  999.0,  999.0,  999.0,  999.0,  999.0,  999.0,   10.5,  999.0,    0.7,  999.0,  999.0,    0.4,    0.4,    0.4,    0.4,    0.2,    0.0,    0.2,    0.4,   -0.2,    0.2,   -0.0,  999.0,  999.0,   -0.3,    0.2,   -0.2,   -0.1,   -0.2,  999.0,  999.0,  999.0,   -0.3,  999.0,  999.0,  999.0,    0.2,    0.3,  999.0,  999.0,   -0.3,   -0.0,  999.0,   -0.1,   -0.1,  999.0,   -0.2,  999.0,  999.0,  999.0,    0.2,  999.0,  999.0,  999.0,   -0.1,  999.0,  999.0,  999.0,  999.0,  999.0,  999.0,  999.0,  999.0,  999.0,  999.0,  999.0,  999.0,  999.0,  999.0,  999.0
2011/11/16 19:20,  999.0,  999.0,  999.0,  999.0,  999.0,  999.0,  999.0,  999.0,  999.0,  999.0,  999.0,  999.0,  999.0,  999.0,  999.0,  999.0,  999.0,  999.0,   -0.3,    0.4,  999.0,    0.8,  999.0,  999.0,  999.0,  999.0,  999.0,  999.0,  999.0,  999.0,   -0.1,  999.0,  999.0,  999.0,  999.0,  999.0,  999.0,  999.0,  999.0,  999.0,  999.0,  999.0,  999.0,  999.0,  999.0,  999.0,  999.0,  999.0,  999.0,  999.0,  999.0,  999.0,  999.0,  999.0,  999.0,  999.0,  999.0,  999.0,  999.0,  999.0,  999.0,  999.0,  999.0,  999.0,  999.0,  999.0,  999.0,  999.0,  999.0,  999.0,  999.0,  999.0,  999.0,  999.0,  999.0,  999.0,  999.0,  999.0,  999.0,  999.0
2011/11/16 19:30,  999.0,  999.0,  999.0,  999.0,  999.0,  999.0,  999.0,  999.0,  999.0,  999.0,   24.0,   28.0,   23.0,   23.9,   16.2,  999.0,  999.0,    6.4,   14.4,   13.3,  999.0,   15.0,  999.0,  999.0,  999.0,  999.0,  999.0,  999.0,  999.0,  999.0,   23.9,  999.0,  999.0,   25.7,   26.0,   26.3,   27.0,   28.2,   26.7,   27.3,  999.0,  999.0,  999.0,  999.0,  999.0,  999.0,  999.0,  999.0,  999.0,  999.0,  999.0,  999.0,   -0.0,   -0.1,   -0.3,   -0.2,  999.0,  999.0,  999.0,  999.0,   -0.7,    0.2,  999.0,  999.0,  999.0,  999.0,  999.0,  999.0,  999.0,  999.0,  999.0,  999.0,  999.0,  999.0,  999.0,  999.0,  999.0,  999.0,  999.0,  999.0
2011/11/16 19:40,  999.0,  999.0,  999.0,  999.0,  999.0,   -0.1,  999.0,  999.0,  999.0,  999.0,   -0.6,  999.0,   -0.6,   -0.4,   -0.4,    0.8,   -0.2,   -0.2,   -0.3,    0.1,   -0.0,    2.3,    2.3,    2.1,    1.8,    1.4,    1.1,    0.9,   -0.1,   -1.1,   -1.0,   -1.4,   -1.4,   -0.8,   -1.0,  999.0,   -0.3,  999.0,   -0.1,   -0.2,   -0.5,   -0.4,   -0.2,   -0.2,    0.1,    0.1,   -0.1,   -0.1,    0.1,   -0.1,   -0.0,    0.1,    0.1,    0.2,    0.0,    0.2,   -0.3,   -0.2,    0.0,   -0.0,    0.1,    0.1,   -0.1,   -0.2,   -0.2,   -0.1,   -0.2,    0.0,  999.0,  999.0,    0.1,   -0.0,    0.1,  999.0,  999.0,  999.0,  999.0,  999.0,  999.0,  999.0
2011/11/16 19:50,  999.0,   -0.3,    2.1,  999.0,   -0.2,  999.0,  999.0,  999.0,  999.0,  999.0,  999.0,  999.0,  999.0,  999.0,  999.0,  999.0,  999.0,  999.0,  999.0,   -0.0,   -0.1,    4.9,    4.6,  999.0,   20.9,   19.8,   18.1,   17.1,  999.0,  999.0,  999.0,  999.0,  999.0,  999.0,  999.0,  999.0,  999.0,  999.0,  999.0,  999.0,   -0.3,   -0.4,   -0.0,   -0.1,    0.0,    0.0,  999.0,   -0.2,   -0.0,    0.1,    0.1,   -0.1,    0.1,    0.1,   -0.0,   -0.1,    0.0,    0.0,    0.0,   -0.2,    0.1,    0.1,   -0.2,   -0.1,   -0.1,   -0.0,   -0.1,    0.0,    0.1,  999.0,    0.1,    0.1,  999.0,  999.0,  999.0,  999.0,  999.0,  999.0,  999.0,  999.0
2011/11/16 20:00,  999.0,    0.2,  999.0,    0.5,    0.0,    0.3,  999.0,  999.0,  999.0,  999.0,  999.0,  999.0,  999.0,  999.0,  999.0,  999.0,  999.0,    7.8,    9.0,   22.5,   27.1,   26.6,   26.4,   27.9,   28.6,   25.8,   25.8,   29.4,   31.1,   30.5,   28.7,   30.8,   29.8,   29.9,   29.7,   30.0,   30.9,   32.8,  999.0,  999.0,  999.0,  999.0,   -0.3,   -0.1,   -0.0,    0.1,   -0.0,    0.1,    0.1,    0.0,    0.0,   -0.0,   -0.0,   -0.0,   -0.0,    0.2,   -0.1,   -0.1,   -0.2,    0.2,    0.2,    0.0,    0.1,    0.1,   -0.0,   -0.1,   -0.2,    0.0,    0.1,    0.0,   -0.1,   -0.4,   -0.1,   -0.2,  999.0,  999.0,  999.0,  999.0,  999.0,  999.0
2011/11/16 20:10,  999.0,  999.0,    0.4,   -0.1,   -0.1,    0.2,  999.0,    0.1,   -0.1,  999.0,    4.1,    0.1,    0.8,    0.2,   -0.1,   -0.2,  999.0,  999.0,   11.0,   14.7,   19.2,   15.9,   16.2,   11.8,   11.1,   17.4,   13.7,   17.4,   17.6,   18.2,   14.7,   15.0,   15.1,   15.1,   14.7,   14.3,   14.3,   14.3,    9.3,    9.3,   -0.2,   -0.1,    0.1,   -0.1,    0.0,   -0.0,    0.0,    0.1,    0.1,   -0.0,    0.0,    0.1,    0.1,   -0.0,    0.1,   -0.1,   -0.2,    0.0,    0.0,    0.3,    0.0,    0.1,   -0.3,   -0.1,    0.0,   -0.0,    0.1,    0.1,    0.2,    0.0,    0.3,    0.1,   -0.0,   -0.5,  999.0,  999.0,  999.0,  999.0,  999.0,  999.0
2011/11/16 20:20,  999.0,  999.0,  999.0,    0.3,  999.0,    0.5,  999.0,  999.0,  999.0,    0.1,   -0.2,    0.0,   -0.0,   -0.2,    0.1,   -0.1,   -0.1,    0.1,   -0.0,    0.0,    0.0,    0.1,    0.1,   -0.0,    0.0,   -0.1,   -0.0,   -0.2,   -0.2,   -0.3,   -0.1,   -0.2,   -0.1,    0.1,   -0.2,   -0.3,    0.0,    0.0,    0.0,   -0.1,   -0.3,   -0.1,    0.1,    0.2,    0.0,    0.0,   -0.2,   -0.2,   -0.0,    0.0,   -0.1,   -0.2,   -0.2,   -0.0,    0.0,    0.1,    0.1,    0.1,   -0.0,   -0.2,    0.2,   -0.1,    0.2,    0.0,   -0.0,   -0.0,   -0.1,   -0.1,    0.1,    0.1,    0.1,    0.2,   -0.1,   -0.3,   -0.0,  999.0,  999.0,  999.0,  999.0,  999.0
2011/11/16 20:30,  999.0,  999.0,   -0.0,    0.1,    0.0,    0.1,   -0.3,    0.0,   -0.1,   -0.2,   -0.1,    0.0,   -0.0,    0.2,   -0.0,   -0.1,    0.0,    0.1,    0.0,    0.0,   -0.0,    0.0,   -0.0,    0.0,    0.1,   -0.1,   -0.0,   -0.2,   -0.2,   -0.2,   -0.1,    0.1,   -0.1,    0.0,   -0.0,   -0.1,   -0.1,   -0.1,   -0.1,   -0.1,   -0.2,   -0.2,   -0.1,    0.1,   -0.1,   -0.1,    0.0,   -0.0,    0.1,    0.0,    0.1,    0.1,   -0.0,   -0.0,   -0.1,    0.0,    0.1,    0.1,   -0.1,   -0.1,    0.2,   -0.0,   -0.1,    0.0,    0.2,   -0.0,    0.0,    0.1,   -0.4,   -0.3,    0.2,   -0.1,   -0.1,   -0.1,    0.1,  999.0,  999.0,  999.0,  999.0,  999.0
2011/11/16 20:40,  999.0,  999.0,   -0.3,   -0.6,    0.2,    0.2,   -0.1,    0.1,   -0.0,    0.1,   -0.4,   -0.3,   -0.0,   -0.0,   -0.0,   -0.0,   -0.1,   -0.2,   -0.1,    0.0,   -0.0,   -0.0,   -0.1,   -0.3,   -0.1,    0.1,    0.2,    0.1,   -0.0,   -0.1,    0.0,    0.1,    0.1,   -0.0,    0.0,   -0.1,   -0.2,   -0.1,    0.0,   -0.1,   -0.2,   -0.2,   -0.1,   -0.1,   -0.0,   -0.1,   -0.1,   -0.1,   -0.1,    0.0,   -0.0,   -0.1,    0.1,   -0.0,   -0.0,   -0.1,    0.0,    0.1,    0.1,    0.3,    0.2,    0.2,   -0.1,   -0.2,    0.1,   -0.1,    0.2,   -0.0,    0.1,   -0.1,   -0.1,    0.0,   -0.4,   -0.4,    0.0,  999.0,  999.0,  999.0,  999.0,  999.0
2011/11/16 20:50,  999.0,  999.0,  999.0,   -0.0,   -0.4,    0.1,  999.0,    0.2,  999.0,   -0.2,   -0.0,   -0.0,   -0.4,    0.0,    0.1,    0.0,   -0.0,   -0.2,    4.7,    2.0,   11.3,    7.8,    5.0,    2.5,    2.8,    0.2,    0.2,    0.0,    0.2,   -0.2,   -0.5,   -0.2,   -0.0,    0.1,    0.3,   -0.0,   -0.0,    0.1,   -0.0,   -0.1,   -0.1,   -0.2,   -0.1,    0.1,   -0.1,   -0.1,   -0.2,    0.0,   -0.1,   -0.1,   -0.0,    0.3,    0.1,    0.0,    0.1,    0.1,    0.1,   -0.0,   -0.3,    0.0,    0.1,    0.2,    0.5,    0.0,  999.0,   -0.1,   -0.3,  999.0,   -0.3,   -0.1,   -0.5,    0.1,    0.3,   -0.1,   -0.2,  999.0,  999.0,  999.0,  999.0,  999.0
2011/11/16 21:00,  999.0,  999.0,   -0.2,   -0.5,  999.0,   -0.1,    0.0,  999.0,    0.4,    0.2,  999.0,    0.3,    0.2,    0.1,    1.2,   -0.7,  999.0,    3.4,    2.8,    2.5,    2.5,    3.2,   -1.0,   -1.4,   -0.7,    0.1,   -0.0,   -0.1,   -0.1,   -0.5,   -0.5,   -1.4,    1.6,   -0.1,   -0.1,   -0.1,    0.2,   -2.6,   -1.9,   -0.2,   -1.0,   -0.2,   -0.2,   -0.2,   -0.3,   -0.4,   -0.3,    0.0,    0.0,   -0.2,    0.0,    0.0,   -0.1,    0.1,    0.3,   -0.1,    0.0,   -0.3,    0.1,   -0.4,   -0.0,    0.0,   -0.0,   -0.0,    0.1,   -0.3,    0.1,   -0.1,   -0.1,   -0.1,    0.1,    0.3,   -0.0,    0.0,    0.6,  999.0,  999.0,  999.0,  999.0,  999.0
2011/11/16 21:10,  999.0,   -0.0,    0.5,   -0.2,   -0.1,    0.2,   -0.2,    0.1,    0.2,    3.4,    1.9,  999.0,  999.0,    9.2,   14.4,   16.9,  999.0,  999.0,  999.0,   22.7,   26.8,   31.4,   28.3,   23.3,   19.5,   19.0,   21.8,   18.5,   17.4,   28.8,   28.0,   28.5,   29.5,   28.9,   29.4,   29.2,   29.7,   31.0,   32.2,   33.3,   36.3,  999.0,  999.0,  999.0,  999.0,  999.0,  999.0,  999.0,    0.1,  999.0,  999.0,  999.0,   -0.2,    0.0,   -0.4,    0.1,   -0.1,   -0.0,   -0.2,  999.0,   -0.1,    0.0,    0.3,    0.1,    0.1,    0.2,  999.0,  999.0,  999.0,  999.0,  999.0,  999.0,   -0.2,  999.0,  999.0,  999.0,  999.0,  999.0,  999.0,  999.0
2011/11/16 21:20,  999.0,  999.0,   -0.3,   -0.5,    0.2,  999.0,  999.0,  999.0,  999.0,    6.7,    6.3,    6.4,   12.5,   13.5,   14.3,   20.3,   22.2,   24.9,   26.7,   29.4,   30.4,   31.7,   33.4,   34.0,   32.4,   32.6,   30.2,   28.2,   28.6,   28.0,   28.0,   27.7,   27.6,   26.9,   27.7,   28.2,   29.0,   28.7,   29.7,   32.1,   33.8,   32.7,  999.0,  999.0,  999.0,  999.0,  999.0,  999.0,    0.0,  999.0,  999.0,    0.6,    0.2,    0.4,   -0.0,    0.2,   -0.2,   -0.2,  999.0,   -0.2,  999.0,   -0.4,   -0.3,  999.0,   -0.1,  999.0,  999.0,  999.0,  999.0,  999.0,  999.0,    0.1,  999.0,  999.0,  999.0,  999.0,  999.0,  999.0,  999.0,  999.0
2011/11/16 21:30,  999.0,    0.4,    0.3,  999.0,  999.0,  999.0,   12.7,   11.2,    9.8,    9.5,    9.4,   10.9,   12.2,   14.6,   18.3,   21.2,   23.4,   25.7,   27.3,   29.2,   29.8,   28.9,   29.3,   29.0,   28.2,   28.1,   27.6,   26.7,   26.6,   26.6,   27.2,   28.2,   28.7,   29.1,   29.4,   29.8,   31.0,   30.9,   32.7,   33.5,   34.9,   35.5,   35.4,  999.0,  999.0,  999.0,  999.0,  999.0,  999.0,  999.0,  999.0,  999.0,  999.0,  999.0,    0.1,  999.0,   -0.1,   -0.2,    0.1,   -0.0,    0.2,    0.2,    0.1,   -0.1,   -0.0,  999.0,  999.0,  999.0,  999.0,  999.0,  999.0,  999.0,  999.0,  999.0,  999.0,  999.0,  999.0,  999.0,  999.0,  999.0
2011/11/16 21:40,  999.0,  999.0,  999.0,  999.0,  999.0,    6.3,    4.3,    6.2,    7.7,    9.7,   10.6,   13.1,   16.4,   18.8,   20.8,   22.0,   23.2,   24.7,   26.6,   27.9,   28.2,   27.0,   26.7,   26.3,   25.9,   25.8,   25.8,   25.5,   25.3,   24.6,   24.3,   24.7,   25.5,   26.6,   28.3,   29.6,   30.8,   31.5,   33.1,   33.7,   33.7,  999.0,  999.0,  999.0,  999.0,  999.0,  999.0,  999.0,  999.0,  999.0,  999.0,   -0.0,   -0.1,   -0.3,   -0.3,   -0.2,   -0.1,    0.0,   -0.1,   -0.1,    0.1,   -0.1,   -0.0,    0.0,   -0.2,   -0.1,   -0.0,   -0.0,    0.3,   -0.1,   -0.0,   -0.2,    0.1,    0.0,  999.0,  999.0,  999.0,  999.0,  999.0,  999.0
2011/11/16 21:50,  999.0,  999.0,  999.0,   12.7,    5.0,   13.2,    9.8,   11.9,   14.5,   16.7,   17.7,   17.8,   19.7,   20.4,   21.2,   22.2,   23.1,   23.1,   22.8,   21.7,   21.6,   22.1,   22.8,   22.3,   22.3,   22.8,   23.7,   24.4,   25.2,   25.3,   25.3,   25.7,   26.2,   27.7,   28.4,   29.5,   30.9,   32.1,   33.3,   34.1,   33.6,   35.4,  999.0,  999.0,  999.0,  999.0,  999.0,  999.0,   -0.1,  999.0,    0.0,    0.0,    0.2,    0.1,   -0.1,   -0.1,    0.1,   -0.1,   -0.0,    0.0,    0.2,   -0.1,    0.1,    0.1,   -0.1,   -0.0,    0.1,   -0.1,  999.0,    0.2,   -0.0,  999.0,    0.2,   -0.1,  999.0,  999.0,  999.0,  999.0,  999.0,  999.0
2011/11/16 22:00,  999.0,  999.0,  999.0,  999.0,  999.0,  999.0,   25.7,   17.1,   14.1,   14.9,   16.5,   16.7,   18.2,   19.0,   19.0,   19.5,   19.7,   20.1,   20.4,   20.2,   20.0,   20.4,   20.7,   21.9,   23.3,   24.8,   25.7,   26.2,   27.2,   28.2,   28.7,   28.8,   29.5,   30.5,   30.6,   31.5,   32.9,   33.4,   32.7,   36.2,  999.0,  999.0,  999.0,  999.0,  999.0,  999.0,    0.0,  999.0,    0.0,    0.0,   -0.1,   -0.3,   -0.1,   -0.3,   -0.1,   -0.1,    0.1,   -0.2,   -0.0,    0.0,    0.2,   -0.2,   -0.2,    0.0,   -0.0,    0.2,   -0.1,   -0.1,   -0.3,  999.0,   -0.1,   -0.1,   -0.2,  999.0,  999.0,  999.0,  999.0,  999.0,  999.0,  999.0
2011/11/16 22:10,  999.0,  999.0,   24.6,   32.4,   30.4,   29.2,   19.0,   15.3,   16.0,   17.7,   19.4,   20.4,   21.6,   21.7,   21.7,   21.1,   20.5,   20.8,   20.9,   21.1,   20.8,   21.0,   21.9,   22.2,   23.7,   24.3,   26.6,   29.2,   30.7,   30.8,   32.7,   33.3,   32.2,   32.6,   32.4,   32.6,   31.6,  999.0,  999.0,  999.0,  999.0,  999.0,   -0.1,    0.3,   -0.0,   -0.0,    0.0,    0.1,    0.2,   -0.1,   -0.0,   -0.1,   -0.1,    0.2,    0.1,    0.0,    0.1,    0.1,    0.1,   -0.1,    0.0,    0.1,    0.1,   -0.1,    0.1,    0.0,   -0.0,  999.0,    0.0,   -0.4,   -0.3,   -0.3,   -0.1,   -0.3,  999.0,  999.0,  999.0,  999.0,  999.0,  999.0
2011/11/16 22:20,  999.0,  999.0,  999.0,  999.0,   28.9,   29.2,   28.5,   24.2,  999.0,   22.4,   22.9,   22.1,   22.2,   22.0,   21.2,   21.7,   22.5,   22.7,   24.5,   24.8,   24.9,   25.2,   27.8,   28.7,   30.7,   32.0,   32.6,   33.0,   30.1,   33.1,   35.4,   32.3,   31.8,   30.9,  999.0,  999.0,  999.0,    3.5,  999.0,   -0.1,    0.2,  999.0,   -0.1,   -0.2,   -0.1,    0.0,    0.0,    0.1,    0.0,   -0.2,    0.0,    0.1,    0.3,   -0.0,   -0.2,   -0.1,    0.1,   -0.0,    0.0,   -0.0,    0.2,   -0.1,   -0.0,    0.1,    0.0,    0.1,   -0.0,  999.0,    0.1,  999.0,   -0.0,  999.0,  999.0,  999.0,  999.0,  999.0,  999.0,  999.0,  999.0,  999.0
2011/11/16 22:30,  999.0,  999.0,    0.0,   -0.1,   -0.1,   -0.1,    0.4,    0.1,    0.1,   -0.3,    3.6,    5.8,    6.5,    5.9,    7.7,    5.5,   17.0,    8.9,    9.5,    9.8,   -0.1,   10.4,   -0.1,  999.0,  999.0,  999.0,  999.0,  999.0,  999.0,  999.0,  999.0,  999.0,  999.0,  999.0,  999.0,  999.0,  999.0,  999.0,   -0.1,   -0.0,   -0.3,    0.0,    0.1,   -0.1,   -0.1,   -0.0,    0.0,   -0.1,   -0.1,    0.1,    0.1,   -0.1,   -0.3,   -0.1,    0.1,    0.0,    0.1,    0.1,    0.1,    0.2,   -0.1,    0.1,   -0.0,    0.0,   -0.0,   -0.0,    0.1,    0.1,    0.1,   -0.1,  999.0,  999.0,   -0.2,    0.1,  999.0,  999.0,  999.0,  999.0,  999.0,  999.0
2011/11/16 22:40,  999.0,  999.0,    0.1,    0.0,   -0.1,    0.1,    0.0,   -0.1,   -0.1,   -0.0,    3.4,    3.9,    6.5,    6.3,    4.1,    2.7,    7.1,    0.1,  999.0,   -0.0,   -0.1,  999.0,    0.0,    7.9,    5.7,    5.4,    7.2,    6.8,    7.5,    7.8,   11.8,    0.0,   -0.0,   -0.1,   -0.1,   -0.1,    0.0,   -0.2,   -0.1,   -0.0,   -0.1,    0.0,    0.2,    0.2,   -0.0,   -0.1,    0.1,    0.1,   -0.1,    0.1,   -0.0,   -0.1,   -0.1,    0.1,   -0.0,    0.1,   -0.0,   -0.1,   -0.2,    0.2,    0.0,    0.1,   -0.1,    0.1,    0.0,    0.0,    0.1,    0.0,   -0.1,    0.1,    0.2,    0.1,    0.2,  999.0,  999.0,  999.0,  999.0,  999.0,  999.0,  999.0
2011/11/16 22:50,  999.0,  999.0,    0.0,    0.1,    0.0,    0.1,    0.2,   -0.0,    0.1,    0.1,    3.0,    3.0,    2.6,    3.0,    3.1,    3.8,    3.0,    3.7,   -0.0,    0.0,    0.1,   -0.0,    4.0,   -0.0,   -0.0,    0.1,    3.4,    0.0,    3.1,   -0.2,   -0.2,    1.8,   -0.0,   -0.1,   -0.0,    0.0,   -0.0,   -0.1,   -0.0,    0.0,   -0.0,   -0.1,    0.1,   -0.0,   -0.0,    0.0,   -0.0,    0.1,    0.0,   -0.1,    0.0,    0.1,    0.3,    0.1,   -0.0,    0.0,   -0.1,   -0.0,    0.0,   -0.0,   -0.0,    0.0,    0.0,   -0.0,   -0.1,   -0.0,    0.1,   -0.2,   -0.1,    0.1,    0.1,    0.2,    0.0,    0.1,   -0.0,  999.0,  999.0,  999.0,  999.0,  999.0
2011/11/16 23:00,  999.0,  999.0,   -0.0,  999.0,   -0.0,  999.0,  999.0,  999.0,  999.0,    8.1,   10.8,   14.3,   10.4,   14.3,   16.9,   14.2,   15.2,   17.6,   22.4,   16.6,   21.1,   21.0,   15.9,   17.2,   17.9,   19.1,   22.7,   21.3,   24.2,   22.3,   22.9,   23.9,   22.1,   25.6,  999.0,  999.0,  999.0,  999.0,    0.0,    0.1,    0.0,   -0.1,    0.0,   -0.2,   -0.1,   -0.1,   -0.0,   -0.1,   -0.0,    0.1,    0.1,    0.0,    0.2,    0.0,    0.2,    0.1,    0.0,   -0.0,   -0.1,   -0.1,   -0.0,   -0.1,    0.2,   -0.1,    0.1,    0.0,    0.2,   -0.1,   -0.1,    0.2,   -0.1,    0.2,  999.0,   -0.0,  999.0,  999.0,  999.0,  999.0,  999.0,  999.0
2011/11/16 23:10,  999.0,  999.0,    0.1,    0.2,    0.2,  999.0,  999.0,    0.2,    0.0,    0.4,    0.2,    0.2,    0.2,    1.9,    2.0,    3.1,  999.0,    1.1,  999.0,  999.0,  999.0,  999.0,    0.3,    2.1,    6.3,    9.5,   13.6,    7.5,   -0.7,    7.0,    3.6,    3.9,    3.8,    3.7,  999.0,    3.2,   -0.3,  999.0,   -0.1,   -0.0,   -0.2,    0.1,    0.0,    0.0,   -0.1,   -0.1,   -0.2,    0.0,    0.1,   -0.1,   -0.1,   -0.1,   -0.1,    0.1,   -0.1,   -0.1,   -0.0,   -0.0,    0.3,   -0.1,    0.1,   -0.1,    0.0,   -0.0,   -0.0,   -0.1,   -0.2,    0.2,    0.4,   -0.0,    0.0,    0.1,  999.0,    0.4,    0.1,  999.0,  999.0,  999.0,  999.0,  999.0
2011/11/16 23:20,  999.0,  999.0,  999.0,  999.0,    0.5,  999.0,  999.0,  999.0,  999.0,  999.0,    3.7,    5.0,    3.3,    5.3,    8.7,    8.6,    8.0,  999.0,  999.0,   16.4,  999.0,   14.6,   13.5,  999.0,  999.0,   18.8,   18.6,   28.7,   19.9,   29.4,   15.3,   19.4,   15.2,   23.3,   16.1,   19.2,   19.5,  999.0,  999.0,  999.0,  999.0,  999.0,  999.0,  999.0,  999.0,   -0.1,   -0.1,    0.2,    0.0,    0.2,    0.3,    0.2,    0.0,    0.1,   -0.0,   -0.2,   -0.2,    0.1,    0.0,    0.0,    0.0,    0.0,   -0.1,    0.0,  999.0,  999.0,  999.0,  999.0,  999.0,   -0.2,    0.1,   -0.0,  999.0,  999.0,  999.0,  999.0,  999.0,  999.0,  999.0,  999.0
2011/11/16 23:30,  999.0,  999.0,  999.0,  999.0,  999.0,  999.0,  999.0,  999.0,  999.0,  999.0,   18.1,   21.6,   26.3,   22.8,   24.3,   25.3,   25.5,   27.8,   27.7,   27.8,   28.7,   28.2,   27.7,   27.4,   27.8,   28.0,   27.7,   27.8,   27.7,   28.1,   28.6,   28.7,   29.6,   29.4,  999.0,  999.0,  999.0,  999.0,  999.0,  999.0,  999.0,  999.0,  999.0,  999.0,    0.2,   -0.1,    0.1,    0.1,   -0.0,    0.0,   -0.1,   -0.1,    0.1,    0.1,    0.0,   -0.1,    0.1,    0.1,   -0.0,    0.2,    0.1,   -0.1,   -0.3,   -0.0,    0.1,   -0.1,    0.0,  999.0,    0.0,  999.0,   -0.2,   -0.3,    0.1,   -0.4,  999.0,  999.0,  999.0,  999.0,  999.0,  999.0
2011/11/16 23:40,  999.0,  999.0,  999.0,    4.8,    4.3,   10.8,   22.0,   16.2,   12.8,   14.1,   15.9,   16.5,   18.2,   19.3,   22.8,   22.5,   24.1,   26.5,   27.5,   29.2,   28.3,   28.0,   27.1,   28.0,   29.6,   29.4,   28.6,   30.0,   29.3,   28.5,   30.5,   30.7,   32.9,   33.1,  999.0,  999.0,  999.0,  999.0,  999.0,  999.0,  999.0,  999.0,  999.0,    0.1,   -0.0,   -0.2,    0.2,    0.2,   -0.1,    0.2,   -0.1,   -0.2,    0.2,   -0.2,   -0.1,    0.0,    0.0,    0.1,    0.1,   -0.4,  999.0,   -0.5,    0.2,  999.0,    0.2,  999.0,   -0.4,  999.0,   -0.3,    0.1,  999.0,    0.2,   -0.0,   -0.1,  999.0,  999.0,  999.0,  999.0,  999.0,  999.0
2011/11/16 23:50,  999.0,  999.0,  999.0,  999.0,  999.0,    8.2,  999.0,  999.0,  999.0,   10.2,    9.7,   12.4,  999.0,   21.0,   20.1,   20.9,   22.0,   22.9,   23.8,   24.5,   27.1,   27.8,   28.1,   29.5,   29.7,   30.7,   31.3,   31.6,   31.5,  999.0,   30.9,   31.7,  999.0,  999.0,  999.0,  999.0,  999.0,  999.0,  999.0,  999.0,  999.0,  999.0,  999.0,   -0.2,   -0.1,   -0.1,   -0.1,   -0.0,    0.5,   -0.1,    0.1,    0.2,    0.0,   -0.1,    0.0,   -0.0,   -0.1,    0.0,    0.0,   -0.4,  999.0,  999.0,   -0.0,    0.0,   -0.3,  999.0,  999.0,   -0.1,    0.1,   -0.2,    0.1,  999.0,    0.2,    0.2,  999.0,  999.0,  999.0,  999.0,  999.0,  999.0
